Time,TemperatureF,DewpointF,PressureIn,WindDirection,WindDirectionDegrees,WindSpeedMPH,WindSpeedGustMPH,Humidity,HourlyPrecipIn,Conditions,Clouds,dailyrainin,SoftwareType,DateUTC
2013-05-30 00:00:00,49.9,41.2,29.58,NW,315,15.2,16.6,72,0.00,,,0.04,WUHU216HW,2013-05-30 06:00:00,
2013-05-30 00:01:00,50.0,41.4,29.58,NW,315,17.0,17.0,72,0.00,,,0.04,WUHU216HW,2013-05-30 06:01:00,
2013-05-30 00:05:00,50.9,41.2,29.58,NW,315,12.5,17.0,69,0.00,,,0.00,WUHU216HW,2013-05-30 06:05:00,
2013-05-30 00:06:00,50.9,41.2,29.58,NW,315,12.5,17.0,69,0.00,,,0.00,WUHU216HW,2013-05-30 06:06:00,
2013-05-30 00:07:00,51.1,41.0,29.58,NW,315,13.6,17.0,68,0.00,,,0.00,WUHU216HW,2013-05-30 06:07:00,
2013-05-30 00:11:00,51.1,41.0,29.58,NW,315,10.3,17.0,68,0.00,,,0.00,WUHU216HW,2013-05-30 06:11:00,
2013-05-30 00:12:00,51.1,41.0,29.58,NW,315,11.2,16.3,68,0.00,,,0.00,WUHU216HW,2013-05-30 06:12:00,
2013-05-30 00:16:00,51.1,41.3,29.58,NW,315,10.1,15.0,69,0.00,,,0.00,WUHU216HW,2013-05-30 06:16:00,
2013-05-30 00:17:00,50.9,41.2,29.58,NW,315,7.2,14.3,69,0.00,,,0.00,WUHU216HW,2013-05-30 06:17:00,
2013-05-30 00:21:00,50.8,41.4,29.58,NW,315,8.9,13.0,70,0.00,,,0.00,WUHU216HW,2013-05-30 06:21:00,
2013-05-30 00:22:00,50.8,41.4,29.58,NNW,338,11.6,13.0,70,0.00,,,0.00,WUHU216HW,2013-05-30 06:22:00,
2013-05-30 00:26:00,50.4,41.4,29.58,NNW,338,8.1,13.0,71,0.00,,,0.00,WUHU216HW,2013-05-30 06:26:00,
2013-05-30 00:27:00,50.4,41.8,29.58,NNW,338,12.1,13.0,72,0.00,,,0.00,WUHU216HW,2013-05-30 06:27:00,
2013-05-30 00:28:00,50.4,41.8,29.58,NNW,338,10.7,13.0,72,0.00,,,0.00,WUHU216HW,2013-05-30 06:28:00,
2013-05-30 00:31:00,50.2,41.2,29.58,North,0,7.6,13.6,71,0.00,,,0.00,WUHU216HW,2013-05-30 06:31:00,
2013-05-30 00:32:00,50.2,41.2,29.58,NNW,338,11.4,13.6,71,0.00,,,0.00,WUHU216HW,2013-05-30 06:32:00,
2013-05-30 00:33:00,50.0,41.1,29.59,NNW,338,11.0,14.3,71,0.00,,,0.00,WUHU216HW,2013-05-30 06:33:00,
2013-05-30 00:36:00,50.0,41.1,29.59,NNW,338,10.1,14.3,71,0.00,,,0.00,WUHU216HW,2013-05-30 06:36:00,
2013-05-30 00:37:00,50.0,41.1,29.59,NNW,338,10.1,14.3,71,0.00,,,0.00,WUHU216HW,2013-05-30 06:37:00,
2013-05-30 00:38:00,50.0,41.4,29.59,NNW,338,9.6,14.3,72,0.00,,,0.00,WUHU216HW,2013-05-30 06:38:00,
2013-05-30 00:41:00,49.9,40.9,29.59,NNW,338,15.7,15.7,71,0.00,,,0.00,WUHU216HW,2013-05-30 06:41:00,
2013-05-30 00:42:00,49.9,40.5,29.59,NW,315,18.6,18.6,70,0.00,,,0.00,WUHU216HW,2013-05-30 06:42:00,
2013-05-30 00:43:00,49.9,40.5,29.59,NNW,338,12.8,18.6,70,0.00,,,0.00,WUHU216HW,2013-05-30 06:43:00,
2013-05-30 00:47:00,49.7,40.3,29.59,NNW,338,17.2,18.6,70,0.00,,,0.00,WUHU216HW,2013-05-30 06:47:00,
2013-05-30 00:48:00,49.7,40.3,29.59,NW,315,16.8,20.4,70,0.00,,,0.00,WUHU216HW,2013-05-30 06:48:00,
2013-05-30 00:49:00,49.5,40.1,29.59,NNW,338,19.2,20.4,70,0.00,,,0.00,WUHU216HW,2013-05-30 06:49:00,
2013-05-30 00:52:00,49.7,40.0,29.60,North,0,17.4,21.0,69,0.00,,,0.00,WUHU216HW,2013-05-30 06:52:00,
2013-05-30 00:53:00,49.7,40.0,29.60,NW,315,18.6,21.0,69,0.00,,,0.00,WUHU216HW,2013-05-30 06:53:00,
2013-05-30 00:54:00,49.9,40.2,29.60,NW,315,18.3,21.0,69,0.00,,,0.00,WUHU216HW,2013-05-30 06:54:00,
2013-05-30 00:58:00,49.9,39.7,29.60,NW,315,14.3,22.6,68,0.00,,,0.00,WUHU216HW,2013-05-30 06:58:00,
2013-05-30 00:59:00,49.9,39.7,29.60,WNW,293,12.1,22.6,68,0.00,,,0.00,WUHU216HW,2013-05-30 06:59:00,
2013-05-30 01:00:00,49.9,39.7,29.60,West,270,14.5,22.6,68,0.00,,,0.00,WUHU216HW,2013-05-30 07:00:00,
2013-05-30 01:03:00,50.0,39.5,29.60,WNW,293,15.0,22.6,67,0.00,,,0.00,WUHU216HW,2013-05-30 07:03:00,
2013-05-30 01:04:00,50.0,39.5,29.60,WNW,293,16.6,22.6,67,0.00,,,0.00,WUHU216HW,2013-05-30 07:04:00,
2013-05-30 01:05:00,50.0,39.5,29.60,West,270,11.4,22.6,67,0.00,,,0.00,WUHU216HW,2013-05-30 07:05:00,
2013-05-30 01:08:00,50.0,39.1,29.60,WNW,293,15.7,19.0,66,0.00,,,0.00,WUHU216HW,2013-05-30 07:08:00,
2013-05-30 01:09:00,50.0,39.1,29.60,WNW,293,18.6,19.0,66,0.00,,,0.00,WUHU216HW,2013-05-30 07:09:00,
2013-05-30 01:10:00,50.0,39.1,29.60,West,270,14.3,19.0,66,0.00,,,0.00,WUHU216HW,2013-05-30 07:10:00,
2013-05-30 01:13:00,50.0,38.7,29.60,West,270,17.0,18.6,65,0.00,,,0.00,WUHU216HW,2013-05-30 07:13:00,
2013-05-30 01:14:00,50.0,38.4,29.60,West,270,15.0,18.6,64,0.00,,,0.00,WUHU216HW,2013-05-30 07:14:00,
2013-05-30 01:16:00,50.0,38.7,29.60,West,270,20.4,20.4,65,0.00,,,0.00,WUHU216HW,2013-05-30 07:16:00,
2013-05-30 01:18:00,50.0,38.7,29.60,NW,315,15.2,20.4,65,0.00,,,0.00,WUHU216HW,2013-05-30 07:18:00,
2013-05-30 01:19:00,50.0,38.7,29.60,WNW,293,13.0,20.4,65,0.00,,,0.00,WUHU216HW,2013-05-30 07:19:00,
2013-05-30 01:20:00,50.0,38.7,29.60,WNW,293,15.0,20.4,65,0.00,,,0.00,WUHU216HW,2013-05-30 07:20:00,
2013-05-30 01:21:00,49.9,38.9,29.60,West,270,14.3,20.4,66,0.00,,,0.00,WUHU216HW,2013-05-30 07:21:00,
2013-05-30 01:23:00,49.9,38.5,29.60,West,270,16.1,20.4,65,0.00,,,0.00,WUHU216HW,2013-05-30 07:23:00,
2013-05-30 01:24:00,50.0,38.4,29.60,WNW,293,14.3,20.4,64,0.00,,,0.00,WUHU216HW,2013-05-30 07:24:00,
2013-05-30 01:25:00,50.0,38.4,29.60,West,270,16.3,20.4,64,0.00,,,0.00,WUHU216HW,2013-05-30 07:25:00,
2013-05-30 01:26:00,50.0,38.4,29.60,West,270,13.4,20.4,64,0.00,,,0.00,WUHU216HW,2013-05-30 07:26:00,
2013-05-30 01:28:00,50.2,38.4,29.60,WNW,293,14.8,19.2,64,0.00,,,0.00,WUHU216HW,2013-05-30 07:28:00,
2013-05-30 01:29:00,50.2,38.4,29.60,WNW,293,11.6,19.2,64,0.00,,,0.00,WUHU216HW,2013-05-30 07:29:00,
2013-05-30 01:30:00,50.2,38.4,29.60,NW,315,9.2,19.2,64,0.00,,,0.00,WUHU216HW,2013-05-30 07:30:00,
2013-05-30 01:31:00,50.2,38.4,29.60,WSW,248,11.9,19.2,64,0.00,,,0.00,WUHU216HW,2013-05-30 07:31:00,
2013-05-30 01:34:00,50.2,38.4,29.60,NW,315,15.0,19.2,64,0.00,,,0.00,WUHU216HW,2013-05-30 07:34:00,
2013-05-30 01:35:00,50.0,38.4,29.60,West,270,16.6,17.2,64,0.00,,,0.00,WUHU216HW,2013-05-30 07:35:00,
2013-05-30 01:36:00,50.0,38.4,29.60,WNW,293,18.8,18.8,64,0.00,,,0.00,WUHU216HW,2013-05-30 07:36:00,
2013-05-30 01:39:00,49.7,38.0,29.60,West,270,19.2,19.2,64,0.00,,,0.00,WUHU216HW,2013-05-30 07:39:00,
2013-05-30 01:40:00,49.7,38.0,29.60,WNW,293,17.4,19.2,64,0.00,,,0.00,WUHU216HW,2013-05-30 07:40:00,
2013-05-30 01:41:00,49.5,37.8,29.60,West,270,20.1,20.1,64,0.00,,,0.00,WUHU216HW,2013-05-30 07:41:00,
2013-05-30 01:44:00,49.3,37.6,29.60,West,270,18.6,20.8,64,0.00,,,0.00,WUHU216HW,2013-05-30 07:44:00,
2013-05-30 01:45:00,49.3,37.6,29.60,West,270,14.8,20.8,64,0.00,,,0.00,WUHU216HW,2013-05-30 07:45:00,
2013-05-30 01:46:00,49.3,37.6,29.60,West,270,16.6,20.8,64,0.00,,,0.00,WUHU216HW,2013-05-30 07:46:00,
2013-05-30 01:47:00,49.3,37.6,29.60,West,270,14.3,20.8,64,0.00,,,0.00,WUHU216HW,2013-05-30 07:47:00,
2013-05-30 01:50:00,49.5,37.8,29.60,WSW,248,17.4,20.8,64,0.00,,,0.00,WUHU216HW,2013-05-30 07:50:00,
2013-05-30 01:51:00,49.5,37.8,29.60,WSW,248,19.2,20.8,64,0.00,,,0.00,WUHU216HW,2013-05-30 07:51:00,
2013-05-30 01:52:00,49.7,38.0,29.60,WNW,293,16.8,20.8,64,0.00,,,0.00,WUHU216HW,2013-05-30 07:52:00,
2013-05-30 01:55:00,49.9,38.2,29.60,West,270,15.7,28.6,64,0.00,,,0.00,WUHU216HW,2013-05-30 07:55:00,
2013-05-30 01:56:00,49.9,38.2,29.60,West,270,17.7,28.6,64,0.00,,,0.00,WUHU216HW,2013-05-30 07:56:00,
2013-05-30 01:57:00,49.9,37.7,29.60,West,270,16.1,28.6,63,0.00,,,0.00,WUHU216HW,2013-05-30 07:57:00,
2013-05-30 02:00:00,49.7,37.5,29.60,West,270,23.0,28.6,63,0.00,,,0.00,WUHU216HW,2013-05-30 08:00:00,
2013-05-30 02:01:00,49.7,38.0,29.60,West,270,16.6,28.6,64,0.00,,,0.00,WUHU216HW,2013-05-30 08:01:00,
2013-05-30 02:02:00,49.7,37.5,29.60,NW,315,18.6,28.6,63,0.00,,,0.00,WUHU216HW,2013-05-30 08:02:00,
2013-05-30 02:05:00,49.5,37.8,29.60,WSW,248,23.7,23.7,64,0.00,,,0.00,WUHU216HW,2013-05-30 08:05:00,
2013-05-30 02:06:00,49.5,37.5,29.60,West,270,22.1,23.7,63,0.00,,,0.00,WUHU216HW,2013-05-30 08:06:00,
2013-05-30 02:07:00,49.5,37.8,29.60,WNW,293,18.6,23.7,64,0.00,,,0.00,WUHU216HW,2013-05-30 08:07:00,
2013-05-30 02:11:00,49.3,37.3,29.60,West,270,15.0,23.7,63,0.00,,,0.00,WUHU216HW,2013-05-30 08:11:00,
2013-05-30 02:12:00,49.1,37.4,29.60,NNW,338,10.5,23.7,64,0.00,,,0.00,WUHU216HW,2013-05-30 08:12:00,
2013-05-30 02:13:00,49.1,37.4,29.60,West,270,19.5,23.7,64,0.00,,,0.00,WUHU216HW,2013-05-30 08:13:00,
2013-05-30 02:16:00,49.1,37.4,29.61,West,270,13.4,23.7,64,0.00,,,0.00,WUHU216HW,2013-05-30 08:16:00,
2013-05-30 02:17:00,49.1,37.4,29.60,WNW,293,19.9,23.7,64,0.00,,,0.00,WUHU216HW,2013-05-30 08:17:00,
2013-05-30 02:18:00,49.1,37.4,29.61,WSW,248,17.9,23.5,64,0.00,,,0.00,WUHU216HW,2013-05-30 08:18:00,
2013-05-30 02:21:00,48.8,36.7,29.60,WSW,248,13.4,24.8,63,0.00,,,0.00,WUHU216HW,2013-05-30 08:21:00,
2013-05-30 02:22:00,48.8,36.7,29.60,WNW,293,19.7,25.9,63,0.00,,,0.00,WUHU216HW,2013-05-30 08:22:00,
2013-05-30 02:23:00,48.8,36.7,29.60,WNW,293,24.6,25.9,63,0.00,,,0.00,WUHU216HW,2013-05-30 08:23:00,
2013-05-30 02:26:00,48.8,36.7,29.61,WNW,293,19.9,27.3,63,0.00,,,0.00,WUHU216HW,2013-05-30 08:26:00,
2013-05-30 02:27:00,48.8,36.7,29.61,WNW,293,19.9,27.3,63,0.00,,,0.00,WUHU216HW,2013-05-30 08:27:00,
2013-05-30 02:28:00,48.8,36.7,29.61,WSW,248,24.2,27.3,63,0.00,,,0.00,WUHU216HW,2013-05-30 08:28:00,
2013-05-30 02:32:00,48.8,36.7,29.60,WNW,293,17.7,27.3,63,0.00,,,0.00,WUHU216HW,2013-05-30 08:32:00,
2013-05-30 02:33:00,48.6,37.0,29.60,West,270,16.3,27.3,64,0.00,,,0.00,WUHU216HW,2013-05-30 08:33:00,
2013-05-30 02:37:00,48.2,36.3,29.60,West,270,21.3,24.2,63,0.00,,,0.00,WUHU216HW,2013-05-30 08:37:00,
2013-05-30 02:38:00,48.2,36.3,29.60,WNW,293,20.8,24.2,63,0.00,,,0.00,WUHU216HW,2013-05-30 08:38:00,
2013-05-30 02:39:00,48.1,36.5,29.60,NW,315,14.3,23.7,64,0.00,,,0.00,WUHU216HW,2013-05-30 08:39:00,
2013-05-30 02:42:00,48.1,36.1,29.60,WNW,293,23.9,25.7,63,0.00,,,0.00,WUHU216HW,2013-05-30 08:42:00,
2013-05-30 02:43:00,48.1,36.1,29.60,West,270,20.6,25.7,63,0.00,,,0.00,WUHU216HW,2013-05-30 08:43:00,
2013-05-30 02:44:00,48.1,36.1,29.60,West,270,20.6,25.7,63,0.00,,,0.00,WUHU216HW,2013-05-30 08:44:00,
2013-05-30 02:47:00,47.9,35.9,29.60,West,270,21.5,25.9,63,0.00,,,0.00,WUHU216HW,2013-05-30 08:47:00,
2013-05-30 02:48:00,47.9,35.9,29.60,West,270,23.9,27.7,63,0.00,,,0.00,WUHU216HW,2013-05-30 08:48:00,
2013-05-30 02:49:00,48.1,36.1,29.60,WNW,293,22.8,27.7,63,0.00,,,0.00,WUHU216HW,2013-05-30 08:49:00,
2013-05-30 02:52:00,48.1,35.6,29.60,West,270,19.7,27.7,62,0.00,,,0.00,WUHU216HW,2013-05-30 08:52:00,
2013-05-30 02:53:00,48.1,35.6,29.60,West,270,18.1,27.7,62,0.00,,,0.00,WUHU216HW,2013-05-30 08:53:00,
2013-05-30 02:54:00,48.2,36.3,29.60,West,270,14.5,27.7,63,0.00,,,0.00,WUHU216HW,2013-05-30 08:54:00,
2013-05-30 02:57:00,48.2,35.8,29.60,WNW,293,19.7,27.7,62,0.00,,,0.00,WUHU216HW,2013-05-30 08:57:00,
2013-05-30 02:58:00,48.2,35.8,29.60,WNW,293,19.7,27.7,62,0.00,,,0.00,WUHU216HW,2013-05-30 08:58:00,
2013-05-30 03:00:00,48.1,35.6,29.60,NW,315,16.3,26.6,62,0.00,,,0.00,WUHU216HW,2013-05-30 09:00:00,
2013-05-30 03:02:00,48.1,36.1,29.60,WNW,293,20.8,24.2,63,0.00,,,0.00,WUHU216HW,2013-05-30 09:02:00,
2013-05-30 03:03:00,48.1,36.1,29.60,NNW,338,16.1,24.2,63,0.00,,,0.00,WUHU216HW,2013-05-30 09:03:00,
2013-05-30 03:04:00,48.1,36.1,29.60,WNW,293,14.5,24.2,63,0.00,,,0.00,WUHU216HW,2013-05-30 09:04:00,
2013-05-30 03:05:00,48.1,36.1,29.60,WNW,293,17.2,24.2,63,0.00,,,0.00,WUHU216HW,2013-05-30 09:05:00,
2013-05-30 03:08:00,47.9,35.9,29.60,WNW,293,17.0,24.2,63,0.00,,,0.00,WUHU216HW,2013-05-30 09:08:00,
2013-05-30 03:09:00,47.9,35.9,29.60,WNW,293,23.7,25.9,63,0.00,,,0.00,WUHU216HW,2013-05-30 09:09:00,
2013-05-30 03:10:00,47.9,35.9,29.60,WNW,293,24.6,25.9,63,0.00,,,0.00,WUHU216HW,2013-05-30 09:10:00,
2013-05-30 03:13:00,47.9,35.9,29.60,WNW,293,14.8,25.9,63,0.00,,,0.00,WUHU216HW,2013-05-30 09:13:00,
2013-05-30 03:14:00,47.9,35.9,29.60,NW,315,21.9,25.9,63,0.00,,,0.00,WUHU216HW,2013-05-30 09:14:00,
2013-05-30 03:15:00,47.9,35.9,29.60,WNW,293,19.2,25.9,63,0.00,,,0.00,WUHU216HW,2013-05-30 09:15:00,
2013-05-30 03:16:00,47.9,35.9,29.60,WNW,293,19.2,25.9,63,0.00,,,0.00,WUHU216HW,2013-05-30 09:16:00,
2013-05-30 03:18:00,47.9,35.9,29.60,WNW,293,21.7,25.9,63,0.00,,,0.00,WUHU216HW,2013-05-30 09:18:00,
2013-05-30 03:19:00,47.9,35.9,29.60,WNW,293,18.3,25.9,63,0.00,,,0.00,WUHU216HW,2013-05-30 09:19:00,
2013-05-30 03:20:00,47.9,35.9,29.60,West,270,16.6,25.9,63,0.00,,,0.00,WUHU216HW,2013-05-30 09:20:00,
2013-05-30 03:21:00,47.9,35.9,29.60,WNW,293,18.3,25.9,63,0.00,,,0.00,WUHU216HW,2013-05-30 09:21:00,
2013-05-30 03:23:00,47.9,35.9,29.60,WNW,293,15.4,25.9,63,0.00,,,0.00,WUHU216HW,2013-05-30 09:23:00,
2013-05-30 03:26:00,47.9,36.3,29.60,WNW,293,20.8,25.9,64,0.00,,,0.00,WUHU216HW,2013-05-30 09:26:00,
2013-05-30 03:28:00,47.7,35.7,29.60,West,270,20.8,24.2,63,0.00,,,0.00,WUHU216HW,2013-05-30 09:28:00,
2013-05-30 03:29:00,47.7,35.7,29.60,West,270,20.8,24.2,63,0.00,,,0.00,WUHU216HW,2013-05-30 09:29:00,
2013-05-30 03:31:00,47.9,35.9,29.60,West,270,26.2,26.2,63,0.00,,,0.00,WUHU216HW,2013-05-30 09:31:00,
2013-05-30 03:32:00,47.9,35.9,29.60,NW,315,19.2,26.2,63,0.00,,,0.00,WUHU216HW,2013-05-30 09:32:00,
2013-05-30 03:34:00,47.9,35.9,29.60,WNW,293,20.1,26.2,63,0.00,,,0.00,WUHU216HW,2013-05-30 09:34:00,
2013-05-30 03:36:00,47.9,35.9,29.60,NW,315,13.9,26.2,63,0.00,,,0.00,WUHU216HW,2013-05-30 09:36:00,
2013-05-30 03:37:00,47.9,35.9,29.60,NW,315,12.8,26.2,63,0.00,,,0.00,WUHU216HW,2013-05-30 09:37:00,
2013-05-30 03:39:00,47.9,35.9,29.60,WNW,293,17.0,26.2,63,0.00,,,0.00,WUHU216HW,2013-05-30 09:39:00,
2013-05-30 03:41:00,47.9,35.9,29.61,NW,315,17.7,26.2,63,0.00,,,0.00,WUHU216HW,2013-05-30 09:41:00,
2013-05-30 03:42:00,47.9,35.9,29.61,WNW,293,12.8,22.1,63,0.00,,,0.00,WUHU216HW,2013-05-30 09:42:00,
2013-05-30 03:43:00,47.9,35.9,29.61,WNW,293,15.7,22.1,63,0.00,,,0.00,WUHU216HW,2013-05-30 09:43:00,
2013-05-30 03:44:00,47.9,35.9,29.61,NW,315,17.4,22.1,63,0.00,,,0.00,WUHU216HW,2013-05-30 09:44:00,
2013-05-30 03:46:00,47.9,35.9,29.61,West,270,17.2,22.1,63,0.00,,,0.00,WUHU216HW,2013-05-30 09:46:00,
2013-05-30 03:47:00,47.7,35.7,29.61,WNW,293,18.6,22.1,63,0.00,,,0.00,WUHU216HW,2013-05-30 09:47:00,
2013-05-30 03:48:00,47.9,35.9,29.61,NW,315,15.2,22.1,63,0.00,,,0.00,WUHU216HW,2013-05-30 09:48:00,
2013-05-30 03:49:00,47.7,35.7,29.61,WNW,293,10.7,22.1,63,0.00,,,0.00,WUHU216HW,2013-05-30 09:49:00,
2013-05-30 03:51:00,47.7,35.7,29.61,NW,315,17.9,20.8,63,0.00,,,0.00,WUHU216HW,2013-05-30 09:51:00,
2013-05-30 03:52:00,47.7,35.7,29.61,WNW,293,17.0,20.8,63,0.00,,,0.00,WUHU216HW,2013-05-30 09:52:00,
2013-05-30 03:54:00,47.7,35.7,29.61,WNW,293,20.8,20.8,63,0.00,,,0.00,WUHU216HW,2013-05-30 09:54:00,
2013-05-30 03:57:00,47.7,36.1,29.61,NW,315,16.1,20.8,64,0.00,,,0.00,WUHU216HW,2013-05-30 09:57:00,
2013-05-30 03:59:00,47.5,35.9,29.61,NW,315,15.7,23.5,64,0.00,,,0.00,WUHU216HW,2013-05-30 09:59:00,
2013-05-30 04:01:00,47.5,35.9,29.61,WNW,293,15.7,23.5,64,0.00,,,0.00,WUHU216HW,2013-05-30 10:01:00,
2013-05-30 04:02:00,47.5,35.6,29.61,WNW,293,16.8,23.5,63,0.00,,,0.00,WUHU216HW,2013-05-30 10:02:00,
2013-05-30 04:04:00,47.5,35.9,29.61,WNW,293,18.6,23.5,64,0.00,,,0.00,WUHU216HW,2013-05-30 10:04:00,
2013-05-30 04:05:00,47.5,35.9,29.61,NW,315,15.2,23.5,64,0.00,,,0.00,WUHU216HW,2013-05-30 10:05:00,
2013-05-30 04:06:00,47.5,35.6,29.61,NW,315,16.8,23.7,63,0.00,,,0.00,WUHU216HW,2013-05-30 10:06:00,
2013-05-30 04:07:00,47.5,35.6,29.61,NW,315,19.2,28.2,63,0.00,,,0.00,WUHU216HW,2013-05-30 10:07:00,
2013-05-30 04:09:00,47.5,35.6,29.61,NW,315,11.2,28.2,63,0.00,,,0.00,WUHU216HW,2013-05-30 10:09:00,
2013-05-30 04:10:00,47.5,35.6,29.61,NW,315,24.2,28.2,63,0.00,,,0.00,WUHU216HW,2013-05-30 10:10:00,
2013-05-30 04:11:00,47.5,35.6,29.61,NW,315,19.5,28.2,63,0.00,,,0.00,WUHU216HW,2013-05-30 10:11:00,
2013-05-30 04:12:00,47.7,35.7,29.61,NNW,338,19.0,28.2,63,0.00,,,0.00,WUHU216HW,2013-05-30 10:12:00,
2013-05-30 04:14:00,47.7,35.7,29.61,NW,315,15.7,28.2,63,0.00,,,0.00,WUHU216HW,2013-05-30 10:14:00,
2013-05-30 04:15:00,47.5,35.6,29.61,NW,315,18.6,28.2,63,0.00,,,0.00,WUHU216HW,2013-05-30 10:15:00,
2013-05-30 04:16:00,47.5,35.6,29.61,NW,315,27.7,28.2,63,0.00,,,0.00,WUHU216HW,2013-05-30 10:16:00,
2013-05-30 04:17:00,47.7,35.7,29.61,NW,315,23.7,27.7,63,0.00,,,0.00,WUHU216HW,2013-05-30 10:17:00,
2013-05-30 04:19:00,47.7,35.7,29.61,NW,315,18.3,27.7,63,0.00,,,0.00,WUHU216HW,2013-05-30 10:19:00,
2013-05-30 04:20:00,47.7,35.7,29.61,WNW,293,20.1,27.7,63,0.00,,,0.00,WUHU216HW,2013-05-30 10:20:00,
2013-05-30 04:21:00,47.7,35.7,29.61,NW,315,19.0,27.7,63,0.00,,,0.00,WUHU216HW,2013-05-30 10:21:00,
2013-05-30 04:23:00,47.5,35.6,29.61,WNW,293,21.0,27.7,63,0.00,,,0.00,WUHU216HW,2013-05-30 10:23:00,
2013-05-30 04:25:00,47.7,35.7,29.61,West,270,23.7,27.7,63,0.00,,,0.00,WUHU216HW,2013-05-30 10:25:00,
2013-05-30 04:26:00,47.7,35.7,29.61,NW,315,23.0,24.2,63,0.00,,,0.00,WUHU216HW,2013-05-30 10:26:00,
2013-05-30 04:28:00,47.7,35.7,29.61,WNW,293,21.3,24.2,63,0.00,,,0.00,WUHU216HW,2013-05-30 10:28:00,
2013-05-30 04:30:00,47.7,35.7,29.61,West,270,26.4,26.4,63,0.00,,,0.00,WUHU216HW,2013-05-30 10:30:00,
2013-05-30 04:31:00,47.9,35.5,29.61,WNW,293,24.4,26.4,62,0.00,,,0.00,WUHU216HW,2013-05-30 10:31:00,
2013-05-30 04:33:00,47.9,35.9,29.61,WNW,293,22.8,26.4,63,0.00,,,0.00,WUHU216HW,2013-05-30 10:33:00,
2013-05-30 04:35:00,47.9,35.5,29.61,WNW,293,18.8,26.4,62,0.00,,,0.00,WUHU216HW,2013-05-30 10:35:00,
2013-05-30 04:36:00,47.9,35.5,29.61,WNW,293,18.8,26.4,62,0.00,,,0.00,WUHU216HW,2013-05-30 10:36:00,
2013-05-30 04:37:00,47.9,35.5,29.61,NW,315,19.9,26.4,62,0.00,,,0.00,WUHU216HW,2013-05-30 10:37:00,
2013-05-30 04:38:00,47.9,35.5,29.61,NW,315,20.6,26.4,62,0.00,,,0.00,WUHU216HW,2013-05-30 10:38:00,
2013-05-30 04:41:00,47.9,35.5,29.61,NW,315,22.4,25.9,62,0.00,,,0.00,WUHU216HW,2013-05-30 10:41:00,
2013-05-30 04:42:00,47.9,35.9,29.61,WNW,293,14.8,25.9,63,0.00,,,0.00,WUHU216HW,2013-05-30 10:42:00,
2013-05-30 04:43:00,47.9,35.5,29.61,NW,315,23.0,25.9,62,0.00,,,0.00,WUHU216HW,2013-05-30 10:43:00,
2013-05-30 04:46:00,47.9,35.5,29.61,NW,315,18.6,25.5,62,0.00,,,0.00,WUHU216HW,2013-05-30 10:46:00,
2013-05-30 04:47:00,47.9,35.5,29.61,NW,315,23.0,25.5,62,0.00,,,0.00,WUHU216HW,2013-05-30 10:47:00,
2013-05-30 04:48:00,47.9,35.5,29.61,NW,315,14.3,23.0,62,0.00,,,0.00,WUHU216HW,2013-05-30 10:48:00,
2013-05-30 04:49:00,47.9,35.5,29.61,NW,315,12.8,23.0,62,0.00,,,0.00,WUHU216HW,2013-05-30 10:49:00,
2013-05-30 04:51:00,47.9,35.9,29.61,NNW,338,13.2,23.0,63,0.00,,,0.00,WUHU216HW,2013-05-30 10:51:00,
2013-05-30 04:52:00,47.9,35.9,29.61,NNW,338,10.3,23.0,63,0.00,,,0.00,WUHU216HW,2013-05-30 10:52:00,
2013-05-30 04:53:00,47.9,35.5,29.61,NW,315,13.0,23.0,62,0.00,,,0.00,WUHU216HW,2013-05-30 10:53:00,
2013-05-30 04:54:00,47.9,35.9,29.61,NW,315,13.4,23.0,63,0.00,,,0.00,WUHU216HW,2013-05-30 10:54:00,
2013-05-30 04:56:00,47.9,35.9,29.61,NNW,338,19.0,23.0,63,0.00,,,0.00,WUHU216HW,2013-05-30 10:56:00,
2013-05-30 04:57:00,47.7,35.7,29.61,NNW,338,13.4,21.7,63,0.00,,,0.00,WUHU216HW,2013-05-30 10:57:00,
2013-05-30 04:59:00,47.7,35.7,29.61,NW,315,13.9,21.7,63,0.00,,,0.00,WUHU216HW,2013-05-30 10:59:00,
2013-05-30 05:00:00,47.7,35.7,29.61,WNW,293,15.0,21.7,63,0.00,,,0.00,WUHU216HW,2013-05-30 11:00:00,
2013-05-30 05:01:00,47.7,35.7,29.61,WNW,293,15.4,21.7,63,0.00,,,0.00,WUHU216HW,2013-05-30 11:01:00,
2013-05-30 05:02:00,47.7,35.7,29.61,WNW,293,15.4,21.7,63,0.00,,,0.00,WUHU216HW,2013-05-30 11:02:00,
2013-05-30 05:04:00,47.7,35.4,29.61,NW,315,15.7,22.4,62,0.00,,,0.00,WUHU216HW,2013-05-30 11:04:00,
2013-05-30 05:05:00,47.9,35.5,29.61,NW,315,12.1,22.4,62,0.00,,,0.00,WUHU216HW,2013-05-30 11:05:00,
2013-05-30 05:06:00,47.9,35.9,29.61,NW,315,11.6,22.4,63,0.00,,,0.00,WUHU216HW,2013-05-30 11:06:00,
2013-05-30 05:07:00,47.9,35.9,29.61,NW,315,14.1,22.4,63,0.00,,,0.00,WUHU216HW,2013-05-30 11:07:00,
2013-05-30 05:08:00,47.9,35.5,29.61,WNW,293,20.8,22.4,62,0.00,,,0.00,WUHU216HW,2013-05-30 11:08:00,
2013-05-30 05:09:00,47.7,35.7,29.61,NNW,338,15.7,22.4,63,0.00,,,0.00,WUHU216HW,2013-05-30 11:09:00,
2013-05-30 05:10:00,47.7,35.7,29.61,NW,315,16.8,22.4,63,0.00,,,0.00,WUHU216HW,2013-05-30 11:10:00,
2013-05-30 05:12:00,47.7,35.7,29.61,NW,315,17.4,22.4,63,0.00,,,0.00,WUHU216HW,2013-05-30 11:12:00,
2013-05-30 05:13:00,47.7,35.7,29.61,NW,315,15.7,22.1,63,0.00,,,0.00,WUHU216HW,2013-05-30 11:13:00,
2013-05-30 05:14:00,47.7,35.7,29.61,NW,315,11.9,22.1,63,0.00,,,0.00,WUHU216HW,2013-05-30 11:14:00,
2013-05-30 05:15:00,47.7,35.7,29.61,NNW,338,15.7,22.1,63,0.00,,,0.00,WUHU216HW,2013-05-30 11:15:00,
2013-05-30 05:17:00,47.5,35.9,29.61,NNW,338,16.1,22.1,64,0.00,,,0.00,WUHU216HW,2013-05-30 11:17:00,
2013-05-30 05:18:00,47.5,35.9,29.61,NW,315,14.3,22.1,64,0.00,,,0.00,WUHU216HW,2013-05-30 11:18:00,
2013-05-30 05:19:00,47.5,35.9,29.61,NNW,338,9.2,22.1,64,0.00,,,0.00,WUHU216HW,2013-05-30 11:19:00,
2013-05-30 05:20:00,47.3,36.2,29.61,NW,315,14.3,19.2,65,0.00,,,0.00,WUHU216HW,2013-05-30 11:20:00,
2013-05-30 05:22:00,47.3,36.2,29.61,NNW,338,8.5,19.2,65,0.00,,,0.00,WUHU216HW,2013-05-30 11:22:00,
2013-05-30 05:23:00,47.2,36.4,29.61,NNW,338,8.5,19.2,66,0.00,,,0.00,WUHU216HW,2013-05-30 11:23:00,
2013-05-30 05:24:00,47.2,36.4,29.61,NNW,338,10.5,16.8,66,0.00,,,0.00,WUHU216HW,2013-05-30 11:24:00,
2013-05-30 05:25:00,47.0,36.2,29.61,NW,315,9.8,16.8,66,0.00,,,0.00,WUHU216HW,2013-05-30 11:25:00,
2013-05-30 05:27:00,47.0,36.2,29.62,NW,315,13.6,16.8,66,0.00,,,0.00,WUHU216HW,2013-05-30 11:27:00,
2013-05-30 05:28:00,47.0,36.2,29.62,NNW,338,12.1,15.0,66,0.00,,,0.00,WUHU216HW,2013-05-30 11:28:00,
2013-05-30 05:29:00,47.0,36.2,29.61,North,0,7.8,15.0,66,0.00,,,0.00,WUHU216HW,2013-05-30 11:29:00,
2013-05-30 05:31:00,46.8,36.5,29.62,NNW,338,12.1,13.6,67,0.00,,,0.00,WUHU216HW,2013-05-30 11:31:00,
2013-05-30 05:33:00,46.8,36.0,29.61,NNW,338,9.2,13.6,66,0.00,,,0.00,WUHU216HW,2013-05-30 11:33:00,
2013-05-30 05:35:00,46.8,36.5,29.61,North,0,9.4,14.5,67,0.00,,,0.00,WUHU216HW,2013-05-30 11:35:00,
2013-05-30 05:36:00,46.8,36.0,29.62,NNW,338,12.5,15.0,66,0.00,,,0.00,WUHU216HW,2013-05-30 11:36:00,
2013-05-30 05:38:00,46.8,36.0,29.61,North,0,12.8,15.0,66,0.00,,,0.00,WUHU216HW,2013-05-30 11:38:00,
2013-05-30 05:39:00,46.8,36.0,29.61,North,0,14.1,15.0,66,0.00,,,0.00,WUHU216HW,2013-05-30 11:39:00,
2013-05-30 05:41:00,46.8,36.5,29.62,NNW,338,9.2,15.0,67,0.00,,,0.00,WUHU216HW,2013-05-30 11:41:00,
2013-05-30 05:43:00,46.8,36.5,29.62,NNW,338,12.5,15.0,67,0.00,,,0.00,WUHU216HW,2013-05-30 11:43:00,
2013-05-30 05:44:00,46.8,36.0,29.62,NNW,338,10.1,15.0,66,0.00,,,0.00,WUHU216HW,2013-05-30 11:44:00,
2013-05-30 05:45:00,46.8,36.5,29.62,NNW,338,11.4,15.0,67,0.00,,,0.00,WUHU216HW,2013-05-30 11:45:00,
2013-05-30 05:46:00,46.8,36.0,29.62,NNW,338,9.4,14.1,66,0.00,,,0.00,WUHU216HW,2013-05-30 11:46:00,
2013-05-30 05:47:00,46.8,36.5,29.62,NNW,338,8.5,14.1,67,0.00,,,0.00,WUHU216HW,2013-05-30 11:47:00,
2013-05-30 05:48:00,46.8,36.5,29.62,NNW,338,11.4,14.1,67,0.00,,,0.00,WUHU216HW,2013-05-30 11:48:00,
2013-05-30 05:49:00,46.8,36.5,29.62,NW,315,11.0,13.4,67,0.00,,,0.00,WUHU216HW,2013-05-30 11:49:00,
2013-05-30 05:50:00,46.6,35.8,29.62,NW,315,14.3,14.3,66,0.00,,,0.00,WUHU216HW,2013-05-30 11:50:00,
2013-05-30 05:51:00,46.8,36.0,29.62,NW,315,11.0,14.3,66,0.00,,,0.00,WUHU216HW,2013-05-30 11:51:00,
2013-05-30 05:52:00,46.8,36.0,29.62,NW,315,9.8,14.3,66,0.00,,,0.00,WUHU216HW,2013-05-30 11:52:00,
2013-05-30 05:53:00,46.8,35.7,29.62,NNW,338,10.1,17.2,65,0.00,,,0.00,WUHU216HW,2013-05-30 11:53:00,
2013-05-30 05:54:00,46.8,35.7,29.62,NNW,338,20.6,20.6,65,0.00,,,0.00,WUHU216HW,2013-05-30 11:54:00,
2013-05-30 05:56:00,46.8,35.7,29.62,NNW,338,10.1,20.6,65,0.00,,,0.00,WUHU216HW,2013-05-30 11:56:00,
2013-05-30 05:57:00,46.8,35.7,29.62,NNW,338,10.7,20.6,65,0.00,,,0.00,WUHU216HW,2013-05-30 11:57:00,
2013-05-30 05:58:00,47.0,35.4,29.62,NW,315,16.6,20.6,64,0.00,,,0.00,WUHU216HW,2013-05-30 11:58:00,
2013-05-30 05:59:00,47.0,35.4,29.62,NW,315,15.4,20.6,64,0.00,,,0.00,WUHU216HW,2013-05-30 11:59:00,
2013-05-30 06:01:00,47.0,35.4,29.62,North,0,7.6,20.6,64,0.00,,,0.00,WUHU216HW,2013-05-30 12:01:00,
2013-05-30 06:02:00,47.0,35.8,29.62,WNW,293,9.8,20.6,65,0.00,,,0.00,WUHU216HW,2013-05-30 12:02:00,
2013-05-30 06:04:00,47.0,35.4,29.62,NNW,338,10.5,20.6,64,0.00,,,0.00,WUHU216HW,2013-05-30 12:04:00,
2013-05-30 06:06:00,47.0,35.0,29.62,NW,315,20.4,20.4,63,0.00,,,0.00,WUHU216HW,2013-05-30 12:06:00,
2013-05-30 06:07:00,47.0,35.0,29.62,NW,315,19.2,20.4,63,0.00,,,0.00,WUHU216HW,2013-05-30 12:07:00,
2013-05-30 06:09:00,47.0,35.0,29.62,NW,315,14.5,25.3,63,0.00,,,0.00,WUHU216HW,2013-05-30 12:09:00,
2013-05-30 06:11:00,47.2,34.8,29.62,NW,315,17.0,25.3,62,0.00,,,0.00,WUHU216HW,2013-05-30 12:11:00,
2013-05-30 06:12:00,47.2,35.2,29.62,NW,315,15.9,25.3,63,0.00,,,0.00,WUHU216HW,2013-05-30 12:12:00,
2013-05-30 06:14:00,47.2,35.2,29.62,North,0,12.1,25.3,63,0.00,,,0.00,WUHU216HW,2013-05-30 12:14:00,
2013-05-30 06:16:00,47.0,35.0,29.62,NNW,338,11.4,25.3,63,0.00,,,0.00,WUHU216HW,2013-05-30 12:16:00,
2013-05-30 06:17:00,47.0,35.0,29.63,NNW,338,12.1,25.3,63,0.00,,,0.00,WUHU216HW,2013-05-30 12:17:00,
2013-05-30 06:18:00,47.0,35.0,29.63,NNW,338,14.1,25.3,63,0.00,,,0.00,WUHU216HW,2013-05-30 12:18:00,
2013-05-30 06:19:00,46.8,34.8,29.63,NW,315,15.0,21.3,63,0.00,,,0.00,WUHU216HW,2013-05-30 12:19:00,
2013-05-30 06:20:00,46.8,34.8,29.63,NNW,338,9.2,21.3,63,0.00,,,0.00,WUHU216HW,2013-05-30 12:20:00,
2013-05-30 06:21:00,46.8,34.8,29.63,NNW,338,13.4,17.4,63,0.00,,,0.00,WUHU216HW,2013-05-30 12:21:00,
2013-05-30 06:22:00,47.0,35.0,29.63,NNW,338,13.6,17.4,63,0.00,,,0.00,WUHU216HW,2013-05-30 12:22:00,
2013-05-30 06:23:00,47.0,35.0,29.63,NNW,338,7.2,17.4,63,0.00,,,0.00,WUHU216HW,2013-05-30 12:23:00,
2013-05-30 06:24:00,47.0,35.0,29.63,North,0,8.5,17.4,63,0.00,,,0.00,WUHU216HW,2013-05-30 12:24:00,
2013-05-30 06:25:00,46.8,35.2,29.63,NNW,338,10.5,17.4,64,0.00,,,0.00,WUHU216HW,2013-05-30 12:25:00,
2013-05-30 06:27:00,46.8,34.8,29.63,NW,315,14.5,17.4,63,0.00,,,0.00,WUHU216HW,2013-05-30 12:27:00,
2013-05-30 06:28:00,46.8,34.8,29.63,NW,315,16.8,17.4,63,0.00,,,0.00,WUHU216HW,2013-05-30 12:28:00,
2013-05-30 06:29:00,47.0,35.0,29.63,NW,315,14.3,22.8,63,0.00,,,0.00,WUHU216HW,2013-05-30 12:29:00,
2013-05-30 06:30:00,47.0,35.0,29.63,WNW,293,15.0,22.8,63,0.00,,,0.00,WUHU216HW,2013-05-30 12:30:00,
2013-05-30 06:32:00,47.0,35.0,29.63,WNW,293,12.8,22.8,63,0.00,,,0.00,WUHU216HW,2013-05-30 12:32:00,
2013-05-30 06:33:00,47.0,35.0,29.64,NW,315,15.0,22.8,63,0.00,,,0.00,WUHU216HW,2013-05-30 12:33:00,
2013-05-30 06:34:00,47.0,35.0,29.64,NNW,338,19.5,22.8,63,0.00,,,0.00,WUHU216HW,2013-05-30 12:34:00,
2013-05-30 06:35:00,47.0,35.0,29.64,WNW,293,10.7,22.8,63,0.00,,,0.00,WUHU216HW,2013-05-30 12:35:00,
2013-05-30 06:37:00,47.0,34.7,29.64,NNW,338,15.9,22.8,62,0.00,,,0.00,WUHU216HW,2013-05-30 12:37:00,
2013-05-30 06:39:00,47.2,34.8,29.64,NW,315,11.4,19.5,62,0.00,,,0.00,WUHU216HW,2013-05-30 12:39:00,
2013-05-30 06:40:00,47.2,34.8,29.64,NW,315,10.3,19.5,62,0.00,,,0.00,WUHU216HW,2013-05-30 12:40:00,
2013-05-30 06:42:00,47.2,35.2,29.64,NW,315,18.6,19.5,63,0.00,,,0.00,WUHU216HW,2013-05-30 12:42:00,
2013-05-30 06:44:00,47.2,35.2,29.64,NW,315,7.2,19.5,63,0.00,,,0.00,WUHU216HW,2013-05-30 12:44:00,
2013-05-30 06:45:00,47.2,35.2,29.64,NNW,338,8.9,19.2,63,0.00,,,0.00,WUHU216HW,2013-05-30 12:45:00,
2013-05-30 06:47:00,47.2,35.2,29.64,NNW,338,17.2,18.6,63,0.00,,,0.00,WUHU216HW,2013-05-30 12:47:00,
2013-05-30 06:48:00,47.2,35.2,29.64,NNW,338,17.2,18.6,63,0.00,,,0.00,WUHU216HW,2013-05-30 12:48:00,
2013-05-30 06:49:00,47.2,35.2,29.64,NW,315,8.7,18.6,63,0.00,,,0.00,WUHU216HW,2013-05-30 12:49:00,
2013-05-30 06:50:00,47.2,34.8,29.64,NNW,338,20.1,20.1,62,0.00,,,0.00,WUHU216HW,2013-05-30 12:50:00,
2013-05-30 06:51:00,47.2,35.2,29.64,WNW,293,13.6,20.1,63,0.00,,,0.00,WUHU216HW,2013-05-30 12:51:00,
2013-05-30 06:52:00,47.2,35.2,29.64,NNW,338,9.6,20.1,63,0.00,,,0.00,WUHU216HW,2013-05-30 12:52:00,
2013-05-30 06:53:00,47.2,35.2,29.64,NNW,338,10.5,20.1,63,0.00,,,0.00,WUHU216HW,2013-05-30 12:53:00,
2013-05-30 06:54:00,47.0,35.0,29.64,North,0,8.9,20.1,63,0.00,,,0.00,WUHU216HW,2013-05-30 12:54:00,
2013-05-30 06:55:00,47.0,35.0,29.64,NNW,338,8.9,20.1,63,0.00,,,0.00,WUHU216HW,2013-05-30 12:55:00,
2013-05-30 06:56:00,47.0,35.0,29.64,NW,315,9.8,20.1,63,0.00,,,0.00,WUHU216HW,2013-05-30 12:56:00,
2013-05-30 06:57:00,47.0,34.7,29.65,NNW,338,11.6,20.1,62,0.00,,,0.00,WUHU216HW,2013-05-30 12:57:00,
2013-05-30 06:58:00,47.0,34.7,29.64,North,0,8.1,20.1,62,0.00,,,0.00,WUHU216HW,2013-05-30 12:58:00,
2013-05-30 06:59:00,47.0,35.0,29.64,NW,315,17.4,20.1,63,0.00,,,0.00,WUHU216HW,2013-05-30 12:59:00,
2013-05-30 07:00:00,47.0,35.0,29.65,NW,315,11.4,20.1,63,0.00,,,0.00,WUHU216HW,2013-05-30 13:00:00,
2013-05-30 07:01:00,47.0,34.7,29.65,NW,315,17.7,18.6,62,0.00,,,0.00,WUHU216HW,2013-05-30 13:01:00,
2013-05-30 07:02:00,47.0,35.0,29.65,NW,315,10.7,18.6,63,0.00,,,0.00,WUHU216HW,2013-05-30 13:02:00,
2013-05-30 07:03:00,47.0,35.0,29.65,NW,315,13.9,18.6,63,0.00,,,0.00,WUHU216HW,2013-05-30 13:03:00,
2013-05-30 07:04:00,47.0,35.0,29.65,NNW,338,15.0,18.6,63,0.00,,,0.00,WUHU216HW,2013-05-30 13:04:00,
2013-05-30 07:05:00,47.0,35.0,29.65,NNW,338,9.4,18.6,63,0.00,,,0.00,WUHU216HW,2013-05-30 13:05:00,
2013-05-30 07:07:00,47.2,35.6,29.64,North,0,5.8,18.6,64,0.00,,,0.00,WUHU216HW,2013-05-30 13:07:00,
2013-05-30 07:08:00,47.0,35.0,29.64,NNW,338,16.3,18.6,63,0.00,,,0.00,WUHU216HW,2013-05-30 13:08:00,
2013-05-30 07:09:00,47.0,35.0,29.64,NW,315,18.6,18.6,63,0.00,,,0.00,WUHU216HW,2013-05-30 13:09:00,
2013-05-30 07:11:00,47.0,35.0,29.64,NW,315,13.2,18.6,63,0.00,,,0.00,WUHU216HW,2013-05-30 13:11:00,
2013-05-30 07:12:00,47.0,35.0,29.65,WNW,293,13.4,18.6,63,0.00,,,0.00,WUHU216HW,2013-05-30 13:12:00,
2013-05-30 07:13:00,47.0,35.0,29.65,WNW,293,12.1,18.6,63,0.00,,,0.00,WUHU216HW,2013-05-30 13:13:00,
2013-05-30 07:14:00,47.0,35.0,29.64,WNW,293,12.1,18.6,63,0.00,,,0.00,WUHU216HW,2013-05-30 13:14:00,
2013-05-30 07:15:00,47.0,35.0,29.64,North,0,13.0,18.6,63,0.00,,,0.00,WUHU216HW,2013-05-30 13:15:00,
2013-05-30 07:16:00,47.0,35.0,29.65,NNW,338,11.0,18.6,63,0.00,,,0.00,WUHU216HW,2013-05-30 13:16:00,
2013-05-30 07:17:00,47.0,35.0,29.65,NW,315,7.8,18.6,63,0.00,,,0.00,WUHU216HW,2013-05-30 13:17:00,
2013-05-30 07:18:00,47.0,35.0,29.65,NW,315,9.4,18.6,63,0.00,,,0.00,WUHU216HW,2013-05-30 13:18:00,
2013-05-30 07:19:00,47.0,35.0,29.65,WNW,293,13.9,18.6,63,0.00,,,0.00,WUHU216HW,2013-05-30 13:19:00,
2013-05-30 07:20:00,47.0,35.0,29.64,NW,315,10.7,18.1,63,0.00,,,0.00,WUHU216HW,2013-05-30 13:20:00,
2013-05-30 07:22:00,47.2,35.2,29.64,WNW,293,8.5,18.1,63,0.00,,,0.00,WUHU216HW,2013-05-30 13:22:00,
2013-05-30 07:23:00,47.2,35.2,29.65,WNW,293,8.1,18.1,63,0.00,,,0.00,WUHU216HW,2013-05-30 13:23:00,
2013-05-30 07:24:00,47.2,35.2,29.65,NW,315,8.9,18.1,63,0.00,,,0.00,WUHU216HW,2013-05-30 13:24:00,
2013-05-30 07:25:00,47.2,35.2,29.65,NNW,338,9.8,17.7,63,0.00,,,0.00,WUHU216HW,2013-05-30 13:25:00,
2013-05-30 07:27:00,47.2,35.2,29.64,NNW,338,12.8,17.7,63,0.00,,,0.00,WUHU216HW,2013-05-30 13:27:00,
2013-05-30 07:28:00,47.2,34.8,29.65,NW,315,13.6,17.0,62,0.00,,,0.00,WUHU216HW,2013-05-30 13:28:00,
2013-05-30 07:29:00,47.2,35.2,29.64,North,0,6.0,15.0,63,0.00,,,0.00,WUHU216HW,2013-05-30 13:29:00,
2013-05-30 07:30:00,47.2,35.2,29.64,NW,315,9.8,14.3,63,0.00,,,0.00,WUHU216HW,2013-05-30 13:30:00,
2013-05-30 07:32:00,47.2,35.2,29.64,WNW,293,16.3,16.3,63,0.00,,,0.00,WUHU216HW,2013-05-30 13:32:00,
2013-05-30 07:33:00,47.2,35.2,29.65,NNW,338,8.5,16.3,63,0.00,,,0.00,WUHU216HW,2013-05-30 13:33:00,
2013-05-30 07:34:00,47.2,35.2,29.65,WNW,293,9.8,16.3,63,0.00,,,0.00,WUHU216HW,2013-05-30 13:34:00,
2013-05-30 07:35:00,47.2,34.8,29.65,NW,315,13.2,16.3,62,0.00,,,0.00,WUHU216HW,2013-05-30 13:35:00,
2013-05-30 07:38:00,47.2,35.2,29.65,NW,315,12.1,16.3,63,0.00,,,0.00,WUHU216HW,2013-05-30 13:38:00,
2013-05-30 07:39:00,47.2,34.8,29.65,NW,315,13.4,16.3,62,0.00,,,0.00,WUHU216HW,2013-05-30 13:39:00,
2013-05-30 07:40:00,47.2,34.8,29.65,NW,315,9.2,17.0,62,0.00,,,0.00,WUHU216HW,2013-05-30 13:40:00,
2013-05-30 07:43:00,47.3,35.4,29.65,NW,315,9.8,17.0,63,0.00,,,0.00,WUHU216HW,2013-05-30 13:43:00,
2013-05-30 07:44:00,47.3,35.0,29.65,NNW,338,8.1,17.0,62,0.00,,,0.00,WUHU216HW,2013-05-30 13:44:00,
2013-05-30 07:45:00,47.3,35.4,29.65,WNW,293,7.4,17.0,63,0.00,,,0.00,WUHU216HW,2013-05-30 13:45:00,
2013-05-30 07:46:00,47.3,35.4,29.65,NW,315,9.4,17.0,63,0.00,,,0.00,WUHU216HW,2013-05-30 13:46:00,
2013-05-30 07:48:00,47.3,35.4,29.65,NW,315,8.3,17.0,63,0.00,,,0.00,WUHU216HW,2013-05-30 13:48:00,
2013-05-30 07:49:00,47.3,35.4,29.65,NNW,338,9.2,17.0,63,0.00,,,0.00,WUHU216HW,2013-05-30 13:49:00,
2013-05-30 07:50:00,47.2,34.8,29.65,NW,315,10.3,17.0,62,0.00,,,0.00,WUHU216HW,2013-05-30 13:50:00,
2013-05-30 07:51:00,47.3,35.4,29.65,NNW,338,12.1,15.7,63,0.00,,,0.00,WUHU216HW,2013-05-30 13:51:00,
2013-05-30 07:53:00,47.3,35.0,29.65,NW,315,18.6,18.6,62,0.00,,,0.00,WUHU216HW,2013-05-30 13:53:00,
2013-05-30 07:54:00,47.3,35.0,29.65,NNW,338,15.7,19.9,62,0.00,,,0.00,WUHU216HW,2013-05-30 13:54:00,
2013-05-30 07:55:00,47.3,35.0,29.65,NW,315,20.1,20.1,62,0.00,,,0.00,WUHU216HW,2013-05-30 13:55:00,
2013-05-30 07:56:00,47.3,35.0,29.65,NNW,338,17.2,20.1,62,0.00,,,0.00,WUHU216HW,2013-05-30 13:56:00,
2013-05-30 07:58:00,47.5,35.2,29.65,NW,315,11.4,20.1,62,0.00,,,0.00,WUHU216HW,2013-05-30 13:58:00,
2013-05-30 07:59:00,47.5,35.2,29.65,NW,315,13.6,20.1,62,0.00,,,0.00,WUHU216HW,2013-05-30 13:59:00,
2013-05-30 08:00:00,47.3,34.6,29.65,NW,315,19.2,23.0,61,0.00,,,0.00,WUHU216HW,2013-05-30 14:00:00,
2013-05-30 08:02:00,47.3,35.0,29.65,NW,315,8.5,23.0,62,0.00,,,0.00,WUHU216HW,2013-05-30 14:02:00,
2013-05-30 08:03:00,47.5,35.2,29.65,NW,315,12.3,23.0,62,0.00,,,0.00,WUHU216HW,2013-05-30 14:03:00,
2013-05-30 08:04:00,47.3,35.0,29.65,WNW,293,11.9,23.0,62,0.00,,,0.00,WUHU216HW,2013-05-30 14:04:00,
2013-05-30 08:05:00,47.3,35.0,29.65,NW,315,14.3,23.0,62,0.00,,,0.00,WUHU216HW,2013-05-30 14:05:00,
2013-05-30 08:07:00,47.5,35.2,29.65,NW,315,15.9,23.0,62,0.00,,,0.00,WUHU216HW,2013-05-30 14:07:00,
2013-05-30 08:08:00,47.5,35.2,29.65,WNW,293,12.5,23.0,62,0.00,,,0.00,WUHU216HW,2013-05-30 14:08:00,
2013-05-30 08:09:00,47.5,35.2,29.65,NW,315,13.6,20.8,62,0.00,,,0.00,WUHU216HW,2013-05-30 14:09:00,
2013-05-30 08:10:00,47.5,35.2,29.65,NW,315,10.3,20.8,62,0.00,,,0.00,WUHU216HW,2013-05-30 14:10:00,
2013-05-30 08:12:00,47.5,35.2,29.65,NNW,338,11.9,20.8,62,0.00,,,0.00,WUHU216HW,2013-05-30 14:12:00,
2013-05-30 08:14:00,47.5,34.7,29.65,WNW,293,22.1,22.1,61,0.00,,,0.00,WUHU216HW,2013-05-30 14:14:00,
2013-05-30 08:15:00,47.5,34.7,29.65,NW,315,13.2,22.1,61,0.00,,,0.00,WUHU216HW,2013-05-30 14:15:00,
2013-05-30 08:17:00,47.5,35.2,29.65,NW,315,13.0,22.1,62,0.00,,,0.00,WUHU216HW,2013-05-30 14:17:00,
2013-05-30 08:19:00,47.5,34.7,29.65,West,270,15.9,22.1,61,0.00,,,0.00,WUHU216HW,2013-05-30 14:19:00,
2013-05-30 08:20:00,47.5,35.2,29.65,WNW,293,16.3,22.1,62,0.00,,,0.00,WUHU216HW,2013-05-30 14:20:00,
2013-05-30 08:22:00,47.5,34.7,29.65,WNW,293,14.3,22.1,61,0.00,,,0.00,WUHU216HW,2013-05-30 14:22:00,
2013-05-30 08:24:00,47.7,34.9,29.66,NW,315,20.1,22.1,61,0.00,,,0.00,WUHU216HW,2013-05-30 14:24:00,
2013-05-30 08:25:00,47.7,34.9,29.66,WNW,293,16.3,22.1,61,0.00,,,0.00,WUHU216HW,2013-05-30 14:25:00,
2013-05-30 08:26:00,47.7,34.9,29.66,NW,315,16.3,22.1,61,0.00,,,0.00,WUHU216HW,2013-05-30 14:26:00,
2013-05-30 08:27:00,47.7,34.9,29.66,WNW,293,17.2,22.1,61,0.00,,,0.00,WUHU216HW,2013-05-30 14:27:00,
2013-05-30 08:29:00,47.7,34.9,29.66,NW,315,19.7,24.8,61,0.00,,,0.00,WUHU216HW,2013-05-30 14:29:00,
2013-05-30 08:30:00,47.7,34.9,29.66,NW,315,16.1,24.8,61,0.00,,,0.00,WUHU216HW,2013-05-30 14:30:00,
2013-05-30 08:31:00,47.7,34.9,29.66,NW,315,18.6,24.8,61,0.00,,,0.00,WUHU216HW,2013-05-30 14:31:00,
2013-05-30 08:32:00,47.7,35.4,29.66,NW,315,16.8,24.8,62,0.00,,,0.00,WUHU216HW,2013-05-30 14:32:00,
2013-05-30 08:34:00,47.9,35.5,29.66,NNW,338,16.6,24.8,62,0.00,,,0.00,WUHU216HW,2013-05-30 14:34:00,
2013-05-30 08:35:00,47.7,35.4,29.66,North,0,10.5,24.8,62,0.00,,,0.00,WUHU216HW,2013-05-30 14:35:00,
2013-05-30 08:36:00,47.9,35.5,29.66,NW,315,16.3,24.8,62,0.00,,,0.00,WUHU216HW,2013-05-30 14:36:00,
2013-05-30 08:37:00,47.7,34.9,29.66,NW,315,14.1,24.8,61,0.00,,,0.00,WUHU216HW,2013-05-30 14:37:00,
2013-05-30 08:40:00,47.9,35.5,29.66,NW,315,14.3,23.0,62,0.00,,,0.00,WUHU216HW,2013-05-30 14:40:00,
2013-05-30 08:41:00,47.9,35.5,29.66,NW,315,14.3,23.0,62,0.00,,,0.00,WUHU216HW,2013-05-30 14:41:00,
2013-05-30 08:43:00,47.9,35.9,29.66,NW,315,15.7,23.0,63,0.00,,,0.00,WUHU216HW,2013-05-30 14:43:00,
2013-05-30 08:45:00,47.9,35.9,29.66,NW,315,12.8,23.0,63,0.00,,,0.00,WUHU216HW,2013-05-30 14:45:00,
2013-05-30 08:46:00,47.9,35.9,29.66,WNW,293,13.2,23.0,63,0.00,,,0.00,WUHU216HW,2013-05-30 14:46:00,
2013-05-30 08:48:00,47.9,35.5,29.66,NW,315,19.2,23.0,62,0.00,,,0.00,WUHU216HW,2013-05-30 14:48:00,
2013-05-30 08:50:00,47.9,35.9,29.66,NNW,338,13.9,19.2,63,0.00,,,0.00,WUHU216HW,2013-05-30 14:50:00,
2013-05-30 08:51:00,47.9,35.9,29.66,NW,315,12.1,19.2,63,0.00,,,0.00,WUHU216HW,2013-05-30 14:51:00,
2013-05-30 08:53:00,47.9,35.5,29.66,NW,315,16.3,19.2,62,0.00,,,0.00,WUHU216HW,2013-05-30 14:53:00,
2013-05-30 08:55:00,48.1,35.6,29.66,NW,315,15.2,22.6,62,0.00,,,0.00,WUHU216HW,2013-05-30 14:55:00,
2013-05-30 08:56:00,48.1,35.6,29.66,NW,315,23.0,23.0,62,0.00,,,0.00,WUHU216HW,2013-05-30 14:56:00,
2013-05-30 08:57:00,47.9,35.1,29.66,NW,315,15.0,23.0,61,0.00,,,0.00,WUHU216HW,2013-05-30 14:57:00,
2013-05-30 08:58:00,48.1,36.1,29.66,NNW,338,12.1,23.0,63,0.00,,,0.00,WUHU216HW,2013-05-30 14:58:00,
2013-05-30 09:01:00,48.1,35.6,29.66,NW,315,15.0,23.0,62,0.00,,,0.00,WUHU216HW,2013-05-30 15:01:00,
2013-05-30 09:02:00,48.2,35.8,29.66,NW,315,21.3,23.0,62,0.00,,,0.00,WUHU216HW,2013-05-30 15:02:00,
2013-05-30 09:03:00,48.1,35.6,29.66,NW,315,16.6,23.0,62,0.00,,,0.00,WUHU216HW,2013-05-30 15:03:00,
2013-05-30 09:06:00,48.2,35.8,29.66,NW,315,10.7,23.0,62,0.00,,,0.00,WUHU216HW,2013-05-30 15:06:00,
2013-05-30 09:07:00,48.2,35.8,29.66,WNW,293,16.1,21.3,62,0.00,,,0.00,WUHU216HW,2013-05-30 15:07:00,
2013-05-30 09:08:00,48.4,36.0,29.66,WNW,293,12.1,21.3,62,0.00,,,0.00,WUHU216HW,2013-05-30 15:08:00,
2013-05-30 09:11:00,48.6,36.2,29.67,WNW,293,11.6,21.3,62,0.00,,,0.00,WUHU216HW,2013-05-30 15:11:00,
2013-05-30 09:12:00,48.4,35.6,29.66,NW,315,13.4,17.9,61,0.00,,,0.00,WUHU216HW,2013-05-30 15:12:00,
2013-05-30 09:13:00,48.4,35.6,29.66,NW,315,13.4,17.9,61,0.00,,,0.00,WUHU216HW,2013-05-30 15:13:00,
2013-05-30 09:14:00,48.6,35.8,29.66,NW,315,14.1,17.9,61,0.00,,,0.00,WUHU216HW,2013-05-30 15:14:00,
2013-05-30 09:16:00,48.6,35.8,29.67,NW,315,12.1,19.2,61,0.00,,,0.00,WUHU216HW,2013-05-30 15:16:00,
2013-05-30 09:17:00,48.6,36.2,29.67,NW,315,11.4,19.2,62,0.00,,,0.00,WUHU216HW,2013-05-30 15:17:00,
2013-05-30 09:18:00,48.6,36.2,29.67,NW,315,11.4,19.2,62,0.00,,,0.00,WUHU216HW,2013-05-30 15:18:00,
2013-05-30 09:19:00,48.6,35.8,29.67,NW,315,16.1,19.2,61,0.00,,,0.00,WUHU216HW,2013-05-30 15:19:00,
2013-05-30 09:21:00,48.6,35.8,29.66,West,270,19.2,20.6,61,0.00,,,0.00,WUHU216HW,2013-05-30 15:21:00,
2013-05-30 09:22:00,48.6,35.8,29.66,NW,315,19.0,21.7,61,0.00,,,0.00,WUHU216HW,2013-05-30 15:22:00,
2013-05-30 09:23:00,48.6,35.8,29.67,NNW,338,15.2,21.7,61,0.00,,,0.00,WUHU216HW,2013-05-30 15:23:00,
2013-05-30 09:24:00,48.8,36.0,29.67,NW,315,15.0,21.7,61,0.00,,,0.00,WUHU216HW,2013-05-30 15:24:00,
2013-05-30 09:26:00,49.0,36.6,29.67,NNW,338,9.8,21.7,62,0.00,,,0.00,WUHU216HW,2013-05-30 15:26:00,
2013-05-30 09:27:00,49.0,36.6,29.67,NW,315,11.4,21.7,62,0.00,,,0.00,WUHU216HW,2013-05-30 15:27:00,
2013-05-30 09:28:00,49.0,36.6,29.67,NW,315,11.2,21.7,62,0.00,,,0.00,WUHU216HW,2013-05-30 15:28:00,
2013-05-30 09:29:00,49.1,36.3,29.67,NW,315,14.5,21.7,61,0.00,,,0.00,WUHU216HW,2013-05-30 15:29:00,
2013-05-30 09:31:00,49.3,36.5,29.67,NNW,338,12.3,19.0,61,0.00,,,0.00,WUHU216HW,2013-05-30 15:31:00,
2013-05-30 09:32:00,49.1,36.3,29.67,WNW,293,15.7,17.9,61,0.00,,,0.00,WUHU216HW,2013-05-30 15:32:00,
2013-05-30 09:33:00,49.3,36.5,29.67,NNW,338,9.6,17.9,61,0.00,,,0.00,WUHU216HW,2013-05-30 15:33:00,
2013-05-30 09:34:00,49.3,36.5,29.67,NW,315,14.1,16.6,61,0.00,,,0.00,WUHU216HW,2013-05-30 15:34:00,
2013-05-30 09:37:00,49.3,36.8,29.67,WNW,293,14.5,19.0,62,0.00,,,0.00,WUHU216HW,2013-05-30 15:37:00,
2013-05-30 09:38:00,49.5,36.6,29.67,NNW,338,13.0,19.0,61,0.00,,,0.00,WUHU216HW,2013-05-30 15:38:00,
2013-05-30 09:39:00,49.5,36.3,29.67,WNW,293,17.9,20.1,60,0.00,,,0.00,WUHU216HW,2013-05-30 15:39:00,
2013-05-30 09:42:00,49.5,37.0,29.67,NW,315,13.9,20.1,62,0.00,,,0.00,WUHU216HW,2013-05-30 15:42:00,
2013-05-30 09:43:00,49.5,36.3,29.67,NW,315,15.2,20.1,60,0.00,,,0.00,WUHU216HW,2013-05-30 15:43:00,
2013-05-30 09:44:00,49.7,36.8,29.67,NW,315,17.4,20.1,61,0.00,,,0.00,WUHU216HW,2013-05-30 15:44:00,
2013-05-30 09:47:00,49.9,37.0,29.67,NW,315,12.8,20.1,61,0.00,,,0.00,WUHU216HW,2013-05-30 15:47:00,
2013-05-30 09:48:00,49.9,37.0,29.67,WNW,293,17.0,20.1,61,0.00,,,0.00,WUHU216HW,2013-05-30 15:48:00,
2013-05-30 09:49:00,50.0,37.1,29.67,NW,315,9.2,19.0,61,0.00,,,0.00,WUHU216HW,2013-05-30 15:49:00,
2013-05-30 09:52:00,50.2,37.3,29.67,NW,315,15.7,18.8,61,0.00,,,0.00,WUHU216HW,2013-05-30 15:52:00,
2013-05-30 09:53:00,50.2,36.9,29.67,NW,315,20.1,20.1,60,0.00,,,0.00,WUHU216HW,2013-05-30 15:53:00,
2013-05-30 09:55:00,50.2,36.5,29.67,WNW,293,15.0,20.1,59,0.00,,,0.00,WUHU216HW,2013-05-30 15:55:00,
2013-05-30 09:58:00,50.2,36.0,29.67,NW,315,18.1,22.1,58,0.00,,,0.00,WUHU216HW,2013-05-30 15:58:00,
2013-05-30 09:59:00,50.4,36.6,29.67,NW,315,14.3,22.1,59,0.00,,,0.00,WUHU216HW,2013-05-30 15:59:00,
2013-05-30 10:00:00,50.4,36.2,29.67,WNW,293,18.1,22.1,58,0.00,,,0.00,WUHU216HW,2013-05-30 16:00:00,
2013-05-30 10:03:00,50.4,37.1,29.67,NNW,338,11.4,22.1,60,0.00,,,0.00,WUHU216HW,2013-05-30 16:03:00,
2013-05-30 10:04:00,50.6,38.0,29.67,NW,315,11.4,22.1,62,0.00,,,0.00,WUHU216HW,2013-05-30 16:04:00,
2013-05-30 10:05:00,50.6,36.7,29.67,NW,315,12.8,22.1,59,0.00,,,0.00,WUHU216HW,2013-05-30 16:05:00,
2013-05-30 10:08:00,50.8,36.9,29.67,NW,315,17.9,20.1,59,0.00,,,0.00,WUHU216HW,2013-05-30 16:08:00,
2013-05-30 10:09:00,50.8,36.9,29.67,West,270,13.4,20.1,59,0.00,,,0.00,WUHU216HW,2013-05-30 16:09:00,
2013-05-30 10:10:00,50.9,37.1,29.67,NW,315,11.2,19.2,59,0.00,,,0.00,WUHU216HW,2013-05-30 16:10:00,
2013-05-30 10:13:00,51.1,37.3,29.67,NNW,338,12.8,20.8,59,0.00,,,0.00,WUHU216HW,2013-05-30 16:13:00,
2013-05-30 10:14:00,51.1,36.8,29.67,NW,315,13.4,20.8,58,0.00,,,0.00,WUHU216HW,2013-05-30 16:14:00,
2013-05-30 10:15:00,51.1,36.8,29.67,NW,315,19.9,20.8,58,0.00,,,0.00,WUHU216HW,2013-05-30 16:15:00,
2013-05-30 10:18:00,51.1,37.3,29.67,NW,315,12.1,20.8,59,0.00,,,0.00,WUHU216HW,2013-05-30 16:18:00,
2013-05-30 10:19:00,51.3,37.9,29.67,WNW,293,9.8,20.8,60,0.00,,,0.00,WUHU216HW,2013-05-30 16:19:00,
2013-05-30 10:20:00,51.3,37.0,29.67,WNW,293,18.8,20.8,58,0.00,,,0.00,WUHU216HW,2013-05-30 16:20:00,
2013-05-30 10:24:00,51.3,36.6,29.67,NW,315,21.5,21.5,57,0.00,,,0.00,WUHU216HW,2013-05-30 16:24:00,
2013-05-30 10:26:00,51.1,36.4,29.67,NNW,338,18.1,21.5,57,0.00,,,0.00,WUHU216HW,2013-05-30 16:26:00,
2013-05-30 10:29:00,51.5,36.6,29.67,WNW,293,17.4,21.5,57,0.00,,,0.00,WUHU216HW,2013-05-30 16:29:00,
2013-05-30 10:31:00,51.7,37.3,29.67,NW,315,17.2,21.5,58,0.00,,,0.00,WUHU216HW,2013-05-30 16:31:00,
2013-05-30 10:34:00,51.8,37.0,29.67,NNW,338,12.1,21.0,57,0.00,,,0.00,WUHU216HW,2013-05-30 16:34:00,
2013-05-30 10:35:00,51.8,37.9,29.67,NNW,338,14.3,21.0,59,0.00,,,0.00,WUHU216HW,2013-05-30 16:35:00,
2013-05-30 10:36:00,52.0,37.2,29.67,NW,315,20.1,20.1,57,0.00,,,0.00,WUHU216HW,2013-05-30 16:36:00,
2013-05-30 10:40:00,51.8,37.0,29.67,WNW,293,20.8,22.1,57,0.00,,,0.00,WUHU216HW,2013-05-30 16:40:00,
2013-05-30 10:41:00,51.8,37.4,29.67,NW,315,11.0,22.1,58,0.00,,,0.00,WUHU216HW,2013-05-30 16:41:00,
2013-05-30 10:42:00,51.8,37.9,29.67,NW,315,8.1,22.1,59,0.00,,,0.00,WUHU216HW,2013-05-30 16:42:00,
2013-05-30 10:45:00,52.0,37.6,29.67,NNW,338,18.3,22.1,58,0.00,,,0.00,WUHU216HW,2013-05-30 16:45:00,
2013-05-30 10:47:00,52.2,36.5,29.67,NNW,338,15.7,22.1,55,0.00,,,0.00,WUHU216HW,2013-05-30 16:47:00,
2013-05-30 10:50:00,52.6,37.3,29.67,NW,315,15.4,20.8,56,0.00,,,0.00,WUHU216HW,2013-05-30 16:50:00,
2013-05-30 10:52:00,52.7,36.9,29.67,NW,315,17.2,20.4,55,0.00,,,0.00,WUHU216HW,2013-05-30 16:52:00,
2013-05-30 10:55:00,52.6,36.4,29.68,WNW,293,19.0,21.5,54,0.00,,,0.00,WUHU216HW,2013-05-30 16:55:00,
2013-05-30 10:57:00,52.6,36.8,29.67,NNW,338,20.8,21.5,55,0.00,,,0.00,WUHU216HW,2013-05-30 16:57:00,
2013-05-30 11:00:00,52.9,38.1,29.67,NW,315,11.2,21.5,57,0.00,,,0.00,WUHU216HW,2013-05-30 17:00:00,
2013-05-30 11:02:00,53.5,38.1,29.67,NNW,338,16.8,21.5,56,0.00,,,0.00,WUHU216HW,2013-05-30 17:02:00,
2013-05-30 11:05:00,53.8,36.5,29.67,NNW,338,21.9,25.1,52,0.00,,,0.00,WUHU216HW,2013-05-30 17:05:00,
2013-05-30 11:06:00,53.8,36.5,29.67,NNW,338,21.9,25.1,52,0.00,,,0.00,WUHU216HW,2013-05-30 17:06:00,
2013-05-30 11:07:00,54.0,37.2,29.67,NW,315,18.3,25.1,53,0.00,,,0.00,WUHU216HW,2013-05-30 17:07:00,
2013-05-30 11:10:00,54.0,37.2,29.67,NW,315,22.4,25.1,53,0.00,,,0.00,WUHU216HW,2013-05-30 17:10:00,
2013-05-30 11:11:00,54.0,37.2,29.67,NW,315,22.1,25.1,53,0.00,,,0.00,WUHU216HW,2013-05-30 17:11:00,
2013-05-30 11:12:00,54.2,37.4,29.67,WNW,293,20.1,25.1,53,0.00,,,0.00,WUHU216HW,2013-05-30 17:12:00,
2013-05-30 11:13:00,54.2,36.9,29.67,NW,315,28.0,28.0,52,0.00,,,0.00,WUHU216HW,2013-05-30 17:13:00,
2013-05-30 11:16:00,54.0,36.7,29.67,NW,315,22.6,28.0,52,0.00,,,0.00,WUHU216HW,2013-05-30 17:16:00,
2013-05-30 11:17:00,53.6,36.4,29.67,NW,315,25.7,28.0,52,0.00,,,0.00,WUHU216HW,2013-05-30 17:17:00,
2013-05-30 11:19:00,53.3,36.6,29.68,NW,315,18.8,28.0,53,0.00,,,0.00,WUHU216HW,2013-05-30 17:19:00,
2013-05-30 11:21:00,53.3,36.6,29.68,NW,315,21.5,28.0,53,0.00,,,0.00,WUHU216HW,2013-05-30 17:21:00,
2013-05-30 11:23:00,53.6,36.4,29.67,WNW,293,20.6,28.0,52,0.00,,,0.00,WUHU216HW,2013-05-30 17:23:00,
2013-05-30 11:24:00,53.5,36.7,29.67,NNW,338,19.2,25.9,53,0.00,,,0.00,WUHU216HW,2013-05-30 17:24:00,
2013-05-30 11:26:00,53.5,36.3,29.68,NW,315,25.3,26.6,52,0.00,,,0.00,WUHU216HW,2013-05-30 17:26:00,
2013-05-30 11:27:00,53.5,35.7,29.68,NW,315,23.3,26.6,51,0.00,,,0.00,WUHU216HW,2013-05-30 17:27:00,
2013-05-30 11:28:00,53.3,36.1,29.68,NW,315,24.4,26.6,52,0.00,,,0.00,WUHU216HW,2013-05-30 17:28:00,
2013-05-30 11:29:00,53.3,36.6,29.68,NW,315,21.3,26.6,53,0.00,,,0.00,WUHU216HW,2013-05-30 17:29:00,
2013-05-30 11:31:00,53.3,37.0,29.68,WSW,248,16.8,26.6,54,0.00,,,0.00,WUHU216HW,2013-05-30 17:31:00,
2013-05-30 11:32:00,53.5,37.2,29.68,NNW,338,14.3,26.6,54,0.00,,,0.00,WUHU216HW,2013-05-30 17:32:00,
2013-05-30 11:33:00,53.6,36.4,29.68,NW,315,15.9,26.6,52,0.00,,,0.00,WUHU216HW,2013-05-30 17:33:00,
2013-05-30 11:35:00,53.6,36.9,29.68,NNW,338,20.8,25.3,53,0.00,,,0.00,WUHU216HW,2013-05-30 17:35:00,
2013-05-30 11:36:00,53.6,36.4,29.68,NNW,338,20.8,24.4,52,0.00,,,0.00,WUHU216HW,2013-05-30 17:36:00,
2013-05-30 11:37:00,53.6,36.4,29.68,NW,315,17.7,24.4,52,0.00,,,0.00,WUHU216HW,2013-05-30 17:37:00,
2013-05-30 11:38:00,53.6,36.4,29.68,NW,315,24.8,24.8,52,0.00,,,0.00,WUHU216HW,2013-05-30 17:38:00,
2013-05-30 11:40:00,53.6,36.4,29.68,NW,315,24.4,24.8,52,0.00,,,0.00,WUHU216HW,2013-05-30 17:40:00,
2013-05-30 11:41:00,53.6,36.4,29.68,NW,315,23.0,24.8,52,0.00,,,0.00,WUHU216HW,2013-05-30 17:41:00,
2013-05-30 11:42:00,53.6,35.9,29.68,NW,315,24.4,24.8,51,0.00,,,0.00,WUHU216HW,2013-05-30 17:42:00,
2013-05-30 11:43:00,53.5,36.3,29.68,WNW,293,21.5,25.5,52,0.00,,,0.00,WUHU216HW,2013-05-30 17:43:00,
2013-05-30 11:46:00,53.6,36.9,29.68,NW,315,17.9,25.5,53,0.00,,,0.00,WUHU216HW,2013-05-30 17:46:00,
2013-05-30 11:47:00,53.6,36.9,29.68,WNW,293,17.0,25.5,53,0.00,,,0.00,WUHU216HW,2013-05-30 17:47:00,
2013-05-30 11:49:00,54.2,35.9,29.68,NNW,338,20.1,25.5,50,0.00,,,0.00,WUHU216HW,2013-05-30 17:49:00,
2013-05-30 11:51:00,54.4,37.1,29.68,NNW,338,19.0,25.5,52,0.00,,,0.00,WUHU216HW,2013-05-30 17:51:00,
2013-05-30 11:52:00,54.4,37.1,29.68,NW,315,17.4,25.3,52,0.00,,,0.00,WUHU216HW,2013-05-30 17:52:00,
2013-05-30 11:55:00,54.7,36.9,29.68,WNW,293,25.3,28.9,51,0.00,,,0.00,WUHU216HW,2013-05-30 17:55:00,
2013-05-30 11:56:00,54.7,36.5,29.68,NW,315,16.8,28.9,50,0.00,,,0.00,WUHU216HW,2013-05-30 17:56:00,
2013-05-30 11:57:00,54.4,36.5,29.68,WNW,293,18.3,28.9,51,0.00,,,0.00,WUHU216HW,2013-05-30 17:57:00,
2013-05-30 12:00:00,54.5,35.7,29.68,NW,315,25.3,28.9,49,0.00,,,0.00,WUHU216HW,2013-05-30 18:00:00,
2013-05-30 12:01:00,54.4,36.5,29.68,NNW,338,19.9,28.9,51,0.00,,,0.00,WUHU216HW,2013-05-30 18:01:00,
2013-05-30 12:02:00,54.4,36.5,29.68,NNW,338,24.4,28.9,51,0.00,,,0.00,WUHU216HW,2013-05-30 18:02:00,
2013-05-30 12:03:00,54.4,36.5,29.68,NW,315,23.3,28.9,51,0.00,,,0.00,WUHU216HW,2013-05-30 18:03:00,
2013-05-30 12:06:00,54.7,36.5,29.68,NNW,338,21.3,26.6,50,0.00,,,0.00,WUHU216HW,2013-05-30 18:06:00,
2013-05-30 12:07:00,54.7,37.4,29.68,WNW,293,19.9,26.6,52,0.00,,,0.00,WUHU216HW,2013-05-30 18:07:00,
2013-05-30 12:08:00,54.9,37.5,29.68,NW,315,19.0,26.6,52,0.00,,,0.00,WUHU216HW,2013-05-30 18:08:00,
2013-05-30 12:11:00,55.1,37.3,29.68,NW,315,23.0,27.1,51,0.00,,,0.00,WUHU216HW,2013-05-30 18:11:00,
2013-05-30 12:12:00,55.1,37.3,29.68,NW,315,20.1,27.1,51,0.00,,,0.00,WUHU216HW,2013-05-30 18:12:00,
2013-05-30 12:13:00,55.3,36.9,29.68,NW,315,25.9,27.1,50,0.00,,,0.00,WUHU216HW,2013-05-30 18:13:00,
2013-05-30 12:16:00,55.4,37.1,29.68,NNW,338,18.6,27.1,50,0.00,,,0.00,WUHU216HW,2013-05-30 18:16:00,
2013-05-30 12:17:00,55.3,36.9,29.68,NW,315,24.6,27.1,50,0.00,,,0.00,WUHU216HW,2013-05-30 18:17:00,
2013-05-30 12:18:00,55.4,37.1,29.68,NW,315,19.7,27.1,50,0.00,,,0.00,WUHU216HW,2013-05-30 18:18:00,
2013-05-30 12:21:00,55.4,37.1,29.68,WNW,293,20.8,29.5,50,0.00,,,0.00,WUHU216HW,2013-05-30 18:21:00,
2013-05-30 12:22:00,55.6,37.3,29.69,NW,315,21.7,29.5,50,0.00,,,0.00,WUHU216HW,2013-05-30 18:22:00,
2013-05-30 12:23:00,55.4,36.0,29.69,NW,315,24.8,29.5,48,0.00,,,0.00,WUHU216HW,2013-05-30 18:23:00,
2013-05-30 12:26:00,55.1,36.7,29.69,NW,315,24.6,29.5,50,0.00,,,0.00,WUHU216HW,2013-05-30 18:26:00,
2013-05-30 12:27:00,55.1,36.7,29.69,NW,315,22.4,29.5,50,0.00,,,0.00,WUHU216HW,2013-05-30 18:27:00,
2013-05-30 12:28:00,55.1,36.2,29.69,NW,315,27.7,29.5,49,0.00,,,0.00,WUHU216HW,2013-05-30 18:28:00,
2013-05-30 12:31:00,55.3,36.9,29.68,NNW,338,23.5,27.7,50,0.00,,,0.00,WUHU216HW,2013-05-30 18:31:00,
2013-05-30 12:32:00,55.4,36.6,29.69,NNW,338,17.2,27.7,49,0.00,,,0.00,WUHU216HW,2013-05-30 18:32:00,
2013-05-30 12:33:00,55.6,37.3,29.69,NW,315,22.8,27.7,50,0.00,,,0.00,WUHU216HW,2013-05-30 18:33:00,
2013-05-30 12:36:00,55.8,36.4,29.69,NW,315,22.4,28.6,48,0.00,,,0.00,WUHU216HW,2013-05-30 18:36:00,
2013-05-30 12:37:00,55.8,37.4,29.69,NW,315,19.9,28.6,50,0.00,,,0.00,WUHU216HW,2013-05-30 18:37:00,
2013-05-30 12:38:00,56.0,37.6,29.69,NW,315,19.2,28.6,50,0.00,,,0.00,WUHU216HW,2013-05-30 18:38:00,
2013-05-30 12:41:00,55.6,37.3,29.69,WNW,293,22.4,28.6,50,0.00,,,0.00,WUHU216HW,2013-05-30 18:41:00,
2013-05-30 12:42:00,55.6,37.3,29.69,WNW,293,15.2,28.6,50,0.00,,,0.00,WUHU216HW,2013-05-30 18:42:00,
2013-05-30 12:43:00,55.6,38.2,29.69,NW,315,18.6,28.6,52,0.00,,,0.00,WUHU216HW,2013-05-30 18:43:00,
2013-05-30 12:46:00,55.6,36.7,29.69,NW,315,23.0,23.5,49,0.00,,,0.00,WUHU216HW,2013-05-30 18:46:00,
2013-05-30 12:47:00,55.6,37.3,29.69,NNW,338,19.2,23.5,50,0.00,,,0.00,WUHU216HW,2013-05-30 18:47:00,
2013-05-30 12:48:00,55.8,37.4,29.69,NW,315,19.2,23.5,50,0.00,,,0.00,WUHU216HW,2013-05-30 18:48:00,
2013-05-30 12:49:00,55.8,36.9,29.69,NNW,338,31.3,31.3,49,0.00,,,0.00,WUHU216HW,2013-05-30 18:49:00,
2013-05-30 12:52:00,56.2,37.8,29.69,NNW,338,19.2,31.3,50,0.00,,,0.00,WUHU216HW,2013-05-30 18:52:00,
2013-05-30 12:54:00,56.3,36.8,29.69,NNW,338,26.8,31.3,48,0.00,,,0.00,WUHU216HW,2013-05-30 18:54:00,
2013-05-30 12:57:00,56.3,37.5,29.69,NW,315,21.3,31.3,49,0.00,,,0.00,WUHU216HW,2013-05-30 18:57:00,
2013-05-30 12:58:00,56.3,37.5,29.69,NW,315,22.4,31.3,49,0.00,,,0.00,WUHU216HW,2013-05-30 18:58:00,
2013-05-30 12:59:00,56.2,37.3,29.69,NNW,338,20.1,31.3,49,0.00,,,0.00,WUHU216HW,2013-05-30 18:59:00,
2013-05-30 13:02:00,56.9,38.5,29.69,NW,315,19.2,28.2,50,0.00,,,0.00,WUHU216HW,2013-05-30 19:02:00,
2013-05-30 13:03:00,56.9,38.0,29.69,NW,315,19.2,28.2,49,0.00,,,0.00,WUHU216HW,2013-05-30 19:03:00,
2013-05-30 13:04:00,56.9,37.4,29.69,NW,315,21.3,28.2,48,0.00,,,0.00,WUHU216HW,2013-05-30 19:04:00,
2013-05-30 13:08:00,57.2,37.7,29.69,NNW,338,25.9,28.2,48,0.00,,,0.00,WUHU216HW,2013-05-30 19:08:00,
2013-05-30 13:09:00,57.1,37.0,29.69,WNW,293,17.7,28.2,47,0.00,,,0.00,WUHU216HW,2013-05-30 19:09:00,
2013-05-30 13:10:00,56.9,36.8,29.69,WNW,293,20.4,28.2,47,0.00,,,0.00,WUHU216HW,2013-05-30 19:10:00,
2013-05-30 13:13:00,56.5,37.0,29.69,WNW,293,16.8,28.2,48,0.00,,,0.00,WUHU216HW,2013-05-30 19:13:00,
2013-05-30 13:14:00,56.7,36.6,29.69,NNW,338,21.0,28.2,47,0.00,,,0.00,WUHU216HW,2013-05-30 19:14:00,
2013-05-30 13:15:00,56.7,36.1,29.69,NNW,338,25.3,28.2,46,0.00,,,0.00,WUHU216HW,2013-05-30 19:15:00,
2013-05-30 13:18:00,56.7,37.2,29.69,NNW,338,19.5,28.4,48,0.00,,,0.00,WUHU216HW,2013-05-30 19:18:00,
2013-05-30 13:19:00,57.1,37.0,29.69,NW,315,23.0,28.4,47,0.00,,,0.00,WUHU216HW,2013-05-30 19:19:00,
2013-05-30 13:20:00,57.1,37.0,29.69,NW,315,19.0,28.4,47,0.00,,,0.00,WUHU216HW,2013-05-30 19:20:00,
2013-05-30 13:21:00,57.2,37.7,29.69,NW,315,22.4,28.4,48,0.00,,,0.00,WUHU216HW,2013-05-30 19:21:00,
2013-05-30 13:23:00,56.9,37.4,29.69,NNW,338,12.3,28.4,48,0.00,,,0.00,WUHU216HW,2013-05-30 19:23:00,
2013-05-30 13:25:00,56.9,36.8,29.69,NW,315,21.0,28.4,47,0.00,,,0.00,WUHU216HW,2013-05-30 19:25:00,
2013-05-30 13:26:00,56.9,36.3,29.69,NW,315,18.6,28.4,46,0.00,,,0.00,WUHU216HW,2013-05-30 19:26:00,
2013-05-30 13:28:00,56.9,37.4,29.69,NNW,338,18.8,24.4,48,0.00,,,0.00,WUHU216HW,2013-05-30 19:28:00,
2013-05-30 13:29:00,56.9,37.4,29.69,NNW,338,18.8,24.4,48,0.00,,,0.00,WUHU216HW,2013-05-30 19:29:00,
2013-05-30 13:30:00,57.2,37.2,29.69,NNW,338,20.8,23.3,47,0.00,,,0.00,WUHU216HW,2013-05-30 19:30:00,
2013-05-30 13:32:00,57.1,37.0,29.69,NNW,338,16.6,23.3,47,0.00,,,0.00,WUHU216HW,2013-05-30 19:32:00,
2013-05-30 13:33:00,57.2,36.5,29.69,NNW,338,21.0,23.3,46,0.00,,,0.00,WUHU216HW,2013-05-30 19:33:00,
2013-05-30 13:34:00,57.2,36.5,29.69,NNW,338,21.0,23.3,46,0.00,,,0.00,WUHU216HW,2013-05-30 19:34:00,
2013-05-30 13:35:00,57.2,36.5,29.69,NW,315,16.6,23.3,46,0.00,,,0.00,WUHU216HW,2013-05-30 19:35:00,
2013-05-30 13:37:00,57.6,38.1,29.69,NNW,338,18.6,22.1,48,0.00,,,0.00,WUHU216HW,2013-05-30 19:37:00,
2013-05-30 13:39:00,57.8,35.9,29.69,NW,315,24.8,24.8,44,0.00,,,0.00,WUHU216HW,2013-05-30 19:39:00,
2013-05-30 13:40:00,57.6,36.9,29.69,North,0,15.9,24.8,46,0.00,,,0.00,WUHU216HW,2013-05-30 19:40:00,
2013-05-30 13:42:00,57.1,36.4,29.69,WNW,293,19.2,24.8,46,0.00,,,0.00,WUHU216HW,2013-05-30 19:42:00,
2013-05-30 13:44:00,57.2,38.4,29.69,NW,315,12.5,24.8,49,0.00,,,0.00,WUHU216HW,2013-05-30 19:44:00,
2013-05-30 13:45:00,57.4,37.4,29.69,North,0,17.9,24.8,47,0.00,,,0.00,WUHU216HW,2013-05-30 19:45:00,
2013-05-30 13:47:00,57.4,37.4,29.68,NNW,338,13.4,24.8,47,0.00,,,0.00,WUHU216HW,2013-05-30 19:47:00,
2013-05-30 13:49:00,57.1,36.4,29.68,NNW,338,21.9,22.4,46,0.00,,,0.00,WUHU216HW,2013-05-30 19:49:00,
2013-05-30 13:50:00,57.1,36.4,29.68,NNW,338,23.0,23.0,46,0.00,,,0.00,WUHU216HW,2013-05-30 19:50:00,
2013-05-30 13:52:00,56.5,37.0,29.68,NW,315,19.9,23.3,48,0.00,,,0.00,WUHU216HW,2013-05-30 19:52:00,
2013-05-30 13:55:00,56.7,37.8,29.69,WNW,293,24.8,24.8,49,0.00,,,0.00,WUHU216HW,2013-05-30 19:55:00,
2013-05-30 13:56:00,56.5,37.6,29.69,NW,315,26.6,26.6,49,0.00,,,0.00,WUHU216HW,2013-05-30 19:56:00,
2013-05-30 13:57:00,56.2,37.8,29.69,NW,315,21.9,28.0,50,0.00,,,0.00,WUHU216HW,2013-05-30 19:57:00,
2013-05-30 14:00:00,56.2,36.1,29.69,NW,315,26.6,28.0,47,0.00,,,0.00,WUHU216HW,2013-05-30 20:00:00,
2013-05-30 14:01:00,56.2,36.1,29.69,WNW,293,21.7,28.0,47,0.00,,,0.00,WUHU216HW,2013-05-30 20:01:00,
2013-05-30 14:02:00,56.2,36.6,29.69,NW,315,19.2,28.0,48,0.00,,,0.00,WUHU216HW,2013-05-30 20:02:00,
2013-05-30 14:05:00,56.3,35.1,29.69,West,270,24.8,28.0,45,0.00,,,0.00,WUHU216HW,2013-05-30 20:05:00,
2013-05-30 14:06:00,56.3,35.1,29.69,NW,315,27.5,28.0,45,0.00,,,0.00,WUHU216HW,2013-05-30 20:06:00,
2013-05-30 14:07:00,56.5,36.5,29.69,NW,315,16.8,27.5,47,0.00,,,0.00,WUHU216HW,2013-05-30 20:07:00,
2013-05-30 14:10:00,56.7,35.5,29.69,NNW,338,25.3,29.1,45,0.00,,,0.00,WUHU216HW,2013-05-30 20:10:00,
2013-05-30 14:11:00,56.7,36.1,29.69,WNW,293,16.6,29.1,46,0.00,,,0.00,WUHU216HW,2013-05-30 20:11:00,
2013-05-30 14:12:00,56.9,36.8,29.69,NW,315,13.2,29.1,47,0.00,,,0.00,WUHU216HW,2013-05-30 20:12:00,
2013-05-30 14:13:00,56.9,36.8,29.69,NW,315,18.6,29.1,47,0.00,,,0.00,WUHU216HW,2013-05-30 20:13:00,
2013-05-30 14:15:00,57.2,37.2,29.69,NNW,338,20.1,29.1,47,0.00,,,0.00,WUHU216HW,2013-05-30 20:15:00,
2013-05-30 14:16:00,57.2,36.0,29.69,NNW,338,22.4,29.1,45,0.00,,,0.00,WUHU216HW,2013-05-30 20:16:00,
2013-05-30 14:17:00,57.4,37.4,29.69,NW,315,15.0,29.1,47,0.00,,,0.00,WUHU216HW,2013-05-30 20:17:00,
2013-05-30 14:18:00,57.6,38.6,29.69,WNW,293,12.8,29.1,49,0.00,,,0.00,WUHU216HW,2013-05-30 20:18:00,
2013-05-30 14:20:00,58.0,37.3,29.69,NW,315,19.7,27.5,46,0.00,,,0.00,WUHU216HW,2013-05-30 20:20:00,
2013-05-30 14:21:00,57.8,38.3,29.69,NW,315,15.9,27.5,48,0.00,,,0.00,WUHU216HW,2013-05-30 20:21:00,
2013-05-30 14:22:00,57.8,37.6,29.69,NNW,338,21.0,27.5,47,0.00,,,0.00,WUHU216HW,2013-05-30 20:22:00,
2013-05-30 14:23:00,57.6,38.6,29.69,NW,315,17.9,27.5,49,0.00,,,0.00,WUHU216HW,2013-05-30 20:23:00,
2013-05-30 14:25:00,57.2,38.4,29.70,West,270,25.3,26.4,49,0.00,,,0.00,WUHU216HW,2013-05-30 20:25:00,
2013-05-30 14:26:00,56.9,37.4,29.70,West,270,29.3,31.8,48,0.00,,,0.00,WUHU216HW,2013-05-30 20:26:00,
2013-05-30 14:27:00,56.5,37.6,29.70,WNW,293,29.1,31.8,49,0.00,,,0.00,WUHU216HW,2013-05-30 20:27:00,
2013-05-30 14:28:00,56.0,36.5,29.70,NW,315,20.1,31.8,48,0.00,,,0.00,WUHU216HW,2013-05-30 20:28:00,
2013-05-30 14:30:00,55.4,36.6,29.70,West,270,23.7,31.8,49,0.00,,,0.00,WUHU216HW,2013-05-30 20:30:00,
2013-05-30 14:32:00,55.3,36.4,29.69,WNW,293,16.8,31.8,49,0.00,,,0.00,WUHU216HW,2013-05-30 20:32:00,
2013-05-30 14:33:00,55.3,35.3,29.70,NW,315,23.7,31.8,47,0.00,,,0.00,WUHU216HW,2013-05-30 20:33:00,
2013-05-30 14:35:00,55.6,36.2,29.69,WNW,293,20.1,31.8,48,0.00,,,0.00,WUHU216HW,2013-05-30 20:35:00,
2013-05-30 14:37:00,55.8,34.7,29.69,WNW,293,20.1,29.1,45,0.00,,,0.00,WUHU216HW,2013-05-30 20:37:00,
2013-05-30 14:38:00,56.2,34.4,29.69,NW,315,25.5,25.5,44,0.00,,,0.00,WUHU216HW,2013-05-30 20:38:00,
2013-05-30 14:39:00,56.2,35.0,29.69,NW,315,20.6,25.5,45,0.00,,,0.00,WUHU216HW,2013-05-30 20:39:00,
2013-05-30 14:41:00,56.3,34.0,29.70,WNW,293,25.1,28.9,43,0.00,,,0.00,WUHU216HW,2013-05-30 20:41:00,
2013-05-30 14:42:00,56.3,35.7,29.70,WNW,293,18.6,28.9,46,0.00,,,0.00,WUHU216HW,2013-05-30 20:42:00,
2013-05-30 14:43:00,56.5,35.3,29.70,West,270,23.0,28.9,45,0.00,,,0.00,WUHU216HW,2013-05-30 20:43:00,
2013-05-30 14:44:00,56.3,35.7,29.70,NW,315,22.6,28.9,46,0.00,,,0.00,WUHU216HW,2013-05-30 20:44:00,
2013-05-30 14:46:00,56.2,35.0,29.70,WNW,293,23.7,28.9,45,0.00,,,0.00,WUHU216HW,2013-05-30 20:46:00,
2013-05-30 14:47:00,56.2,34.4,29.70,West,270,23.5,28.9,44,0.00,,,0.00,WUHU216HW,2013-05-30 20:47:00,
2013-05-30 14:48:00,56.0,34.2,29.70,West,270,16.3,28.9,44,0.00,,,0.00,WUHU216HW,2013-05-30 20:48:00,
2013-05-30 14:49:00,56.0,34.8,29.70,WNW,293,22.8,28.9,45,0.00,,,0.00,WUHU216HW,2013-05-30 20:49:00,
2013-05-30 14:51:00,55.8,34.7,29.70,WNW,293,24.6,26.8,45,0.00,,,0.00,WUHU216HW,2013-05-30 20:51:00,
2013-05-30 14:52:00,56.0,35.4,29.70,NW,315,20.1,26.8,46,0.00,,,0.00,WUHU216HW,2013-05-30 20:52:00,
2013-05-30 14:53:00,56.2,35.0,29.70,NW,315,20.1,26.8,45,0.00,,,0.00,WUHU216HW,2013-05-30 20:53:00,
2013-05-30 14:54:00,56.3,36.3,29.70,West,270,19.0,26.8,47,0.00,,,0.00,WUHU216HW,2013-05-30 20:54:00,
2013-05-30 14:56:00,56.2,35.6,29.70,NW,315,18.1,26.8,46,0.00,,,0.00,WUHU216HW,2013-05-30 20:56:00,
2013-05-30 14:58:00,56.3,35.7,29.70,NW,315,13.9,24.8,46,0.00,,,0.00,WUHU216HW,2013-05-30 20:58:00,
2013-05-30 14:59:00,56.5,36.5,29.69,West,270,19.0,24.6,47,0.00,,,0.00,WUHU216HW,2013-05-30 20:59:00,
2013-05-30 15:01:00,56.7,35.5,29.69,West,270,20.6,24.2,45,0.00,,,0.00,WUHU216HW,2013-05-30 21:01:00,
2013-05-30 15:03:00,56.9,37.4,29.69,NW,315,17.4,24.2,48,0.00,,,0.00,WUHU216HW,2013-05-30 21:03:00,
2013-05-30 15:04:00,57.1,36.4,29.70,NW,315,15.0,24.2,46,0.00,,,0.00,WUHU216HW,2013-05-30 21:04:00,
2013-05-30 15:07:00,57.1,36.4,29.70,NW,315,21.5,22.6,46,0.00,,,0.00,WUHU216HW,2013-05-30 21:07:00,
2013-05-30 15:08:00,57.1,36.4,29.70,WNW,293,24.4,24.4,46,0.00,,,0.00,WUHU216HW,2013-05-30 21:08:00,
2013-05-30 15:09:00,56.9,35.6,29.70,West,270,21.9,24.4,45,0.00,,,0.00,WUHU216HW,2013-05-30 21:09:00,
2013-05-30 15:10:00,56.9,36.8,29.70,WNW,293,18.6,24.4,47,0.00,,,0.00,WUHU216HW,2013-05-30 21:10:00,
2013-05-30 15:12:00,57.1,36.4,29.70,NW,315,22.8,26.6,46,0.00,,,0.00,WUHU216HW,2013-05-30 21:12:00,
2013-05-30 15:13:00,57.1,35.8,29.70,WNW,293,17.0,26.6,45,0.00,,,0.00,WUHU216HW,2013-05-30 21:13:00,
2013-05-30 15:14:00,57.1,36.4,29.70,NNW,338,17.0,26.6,46,0.00,,,0.00,WUHU216HW,2013-05-30 21:14:00,
2013-05-30 15:15:00,57.2,36.0,29.70,NW,315,18.6,26.6,45,0.00,,,0.00,WUHU216HW,2013-05-30 21:15:00,
2013-05-30 15:17:00,57.6,36.9,29.70,NW,315,16.3,26.6,46,0.00,,,0.00,WUHU216HW,2013-05-30 21:17:00,
2013-05-30 15:18:00,58.0,36.6,29.70,WNW,293,25.3,26.6,45,0.00,,,0.00,WUHU216HW,2013-05-30 21:18:00,
2013-05-30 15:19:00,58.1,35.6,29.70,NW,315,24.8,26.6,43,0.00,,,0.00,WUHU216HW,2013-05-30 21:19:00,
2013-05-30 15:20:00,58.1,36.3,29.70,NW,315,17.2,26.6,44,0.00,,,0.00,WUHU216HW,2013-05-30 21:20:00,
2013-05-30 15:22:00,58.0,36.1,29.70,NW,315,20.8,25.3,44,0.00,,,0.00,WUHU216HW,2013-05-30 21:22:00,
2013-05-30 15:24:00,58.1,36.3,29.70,WNW,293,21.7,25.3,44,0.00,,,0.00,WUHU216HW,2013-05-30 21:24:00,
2013-05-30 15:25:00,58.0,36.1,29.70,NW,315,21.0,25.3,44,0.00,,,0.00,WUHU216HW,2013-05-30 21:25:00,
2013-05-30 15:26:00,57.8,35.9,29.70,NW,315,17.0,25.3,44,0.00,,,0.00,WUHU216HW,2013-05-30 21:26:00,
2013-05-30 15:28:00,57.6,36.4,29.70,NW,315,15.7,25.3,45,0.00,,,0.00,WUHU216HW,2013-05-30 21:28:00,
2013-05-30 15:29:00,57.6,36.4,29.70,WNW,293,22.4,24.8,45,0.00,,,0.00,WUHU216HW,2013-05-30 21:29:00,
2013-05-30 15:30:00,57.6,36.4,29.70,NNW,338,23.3,23.9,45,0.00,,,0.00,WUHU216HW,2013-05-30 21:30:00,
2013-05-30 15:31:00,57.6,36.4,29.70,NNW,338,20.4,23.9,45,0.00,,,0.00,WUHU216HW,2013-05-30 21:31:00,
2013-05-30 15:33:00,57.6,36.9,29.70,WNW,293,20.1,24.2,46,0.00,,,0.00,WUHU216HW,2013-05-30 21:33:00,
2013-05-30 15:34:00,57.6,37.4,29.70,WNW,293,15.7,24.2,47,0.00,,,0.00,WUHU216HW,2013-05-30 21:34:00,
2013-05-30 15:36:00,58.0,38.3,29.71,NNW,338,21.3,24.2,48,0.00,,,0.00,WUHU216HW,2013-05-30 21:36:00,
2013-05-30 15:38:00,57.4,36.7,29.71,WNW,293,24.8,24.8,46,0.00,,,0.00,WUHU216HW,2013-05-30 21:38:00,
2013-05-30 15:39:00,57.1,37.0,29.71,WNW,293,22.1,26.6,47,0.00,,,0.00,WUHU216HW,2013-05-30 21:39:00,
2013-05-30 15:41:00,56.5,36.5,29.71,West,270,21.5,30.4,47,0.00,,,0.00,WUHU216HW,2013-05-30 21:41:00,
2013-05-30 15:43:00,56.2,35.0,29.71,WNW,293,17.9,30.4,45,0.00,,,0.00,WUHU216HW,2013-05-30 21:43:00,
2013-05-30 15:44:00,56.0,35.4,29.71,WNW,293,14.5,30.4,46,0.00,,,0.00,WUHU216HW,2013-05-30 21:44:00,
2013-05-30 15:46:00,56.0,34.2,29.71,NNW,338,16.8,30.4,44,0.00,,,0.00,WUHU216HW,2013-05-30 21:46:00,
2013-05-30 15:48:00,56.0,32.6,29.71,West,270,24.6,30.4,41,0.00,,,0.00,WUHU216HW,2013-05-30 21:48:00,
2013-05-30 15:49:00,55.8,32.9,29.71,NNW,338,21.5,30.4,42,0.00,,,0.00,WUHU216HW,2013-05-30 21:49:00,
2013-05-30 15:50:00,55.8,32.9,29.71,NNW,338,21.5,28.9,42,0.00,,,0.00,WUHU216HW,2013-05-30 21:50:00,
2013-05-30 15:51:00,55.8,32.9,29.71,WNW,293,21.7,28.9,42,0.00,,,0.00,WUHU216HW,2013-05-30 21:51:00,
2013-05-30 15:54:00,55.8,33.5,29.71,West,270,19.0,28.9,43,0.00,,,0.00,WUHU216HW,2013-05-30 21:54:00,
2013-05-30 15:55:00,55.8,33.5,29.71,WNW,293,20.4,28.9,43,0.00,,,0.00,WUHU216HW,2013-05-30 21:55:00,
2013-05-30 15:56:00,55.8,32.9,29.71,WNW,293,23.9,28.9,42,0.00,,,0.00,WUHU216HW,2013-05-30 21:56:00,
2013-05-30 15:57:00,55.8,33.5,29.71,NW,315,20.8,28.9,43,0.00,,,0.00,WUHU216HW,2013-05-30 21:57:00,
2013-05-30 15:59:00,56.0,34.2,29.71,NW,315,20.1,25.3,44,0.00,,,0.00,WUHU216HW,2013-05-30 21:59:00,
2013-05-30 16:00:00,56.2,33.8,29.71,NW,315,20.4,25.3,43,0.00,,,0.00,WUHU216HW,2013-05-30 22:00:00,
2013-05-30 16:01:00,56.2,32.7,29.71,NW,315,21.5,26.2,41,0.00,,,0.00,WUHU216HW,2013-05-30 22:01:00,
2013-05-30 16:02:00,56.2,34.4,29.71,NW,315,20.8,26.2,44,0.00,,,0.00,WUHU216HW,2013-05-30 22:02:00,
2013-05-30 16:04:00,56.2,33.8,29.71,NW,315,22.8,26.2,43,0.00,,,0.00,WUHU216HW,2013-05-30 22:04:00,
2013-05-30 16:05:00,56.2,33.8,29.71,NW,315,20.6,26.2,43,0.00,,,0.00,WUHU216HW,2013-05-30 22:05:00,
2013-05-30 16:06:00,56.2,34.4,29.71,NW,315,13.4,26.2,44,0.00,,,0.00,WUHU216HW,2013-05-30 22:06:00,
2013-05-30 16:07:00,56.2,34.4,29.71,NW,315,24.4,26.2,44,0.00,,,0.00,WUHU216HW,2013-05-30 22:07:00,
2013-05-30 16:09:00,56.3,35.1,29.71,NW,315,20.4,26.2,45,0.00,,,0.00,WUHU216HW,2013-05-30 22:09:00,
2013-05-30 16:10:00,56.2,35.0,29.72,WNW,293,23.0,26.2,45,0.00,,,0.00,WUHU216HW,2013-05-30 22:10:00,
2013-05-30 16:11:00,56.2,34.4,29.71,WNW,293,23.0,24.6,44,0.00,,,0.00,WUHU216HW,2013-05-30 22:11:00,
2013-05-30 16:12:00,56.2,35.0,29.71,NW,315,21.9,24.6,45,0.00,,,0.00,WUHU216HW,2013-05-30 22:12:00,
2013-05-30 16:15:00,56.0,34.8,29.71,NW,315,24.4,28.6,45,0.00,,,0.00,WUHU216HW,2013-05-30 22:15:00,
2013-05-30 16:16:00,55.8,34.7,29.71,NW,315,24.2,28.6,45,0.00,,,0.00,WUHU216HW,2013-05-30 22:16:00,
2013-05-30 16:17:00,55.8,35.2,29.71,NW,315,20.1,28.6,46,0.00,,,0.00,WUHU216HW,2013-05-30 22:17:00,
2013-05-30 16:20:00,55.8,35.2,29.72,NW,315,20.1,28.6,46,0.00,,,0.00,WUHU216HW,2013-05-30 22:20:00,
2013-05-30 16:21:00,55.8,35.2,29.72,WNW,293,18.8,28.6,46,0.00,,,0.00,WUHU216HW,2013-05-30 22:21:00,
2013-05-30 16:22:00,56.0,35.9,29.72,NW,315,12.5,28.6,47,0.00,,,0.00,WUHU216HW,2013-05-30 22:22:00,
2013-05-30 16:23:00,56.2,36.1,29.72,West,270,21.5,28.6,47,0.00,,,0.00,WUHU216HW,2013-05-30 22:23:00,
2013-05-30 16:25:00,56.2,35.6,29.72,NNW,338,17.7,25.5,46,0.00,,,0.00,WUHU216HW,2013-05-30 22:25:00,
2013-05-30 16:26:00,56.2,35.6,29.72,NW,315,23.0,25.5,46,0.00,,,0.00,WUHU216HW,2013-05-30 22:26:00,
2013-05-30 16:27:00,56.0,34.8,29.72,WNW,293,22.6,27.1,45,0.00,,,0.00,WUHU216HW,2013-05-30 22:27:00,
2013-05-30 16:28:00,56.0,35.4,29.72,WNW,293,27.1,27.1,46,0.00,,,0.00,WUHU216HW,2013-05-30 22:28:00,
2013-05-30 16:31:00,55.6,35.6,29.72,NW,315,23.5,27.1,47,0.00,,,0.00,WUHU216HW,2013-05-30 22:31:00,
2013-05-30 16:32:00,55.8,36.4,29.72,NNW,338,17.7,27.1,48,0.00,,,0.00,WUHU216HW,2013-05-30 22:32:00,
2013-05-30 16:33:00,55.8,35.7,29.72,NW,315,21.7,27.1,47,0.00,,,0.00,WUHU216HW,2013-05-30 22:33:00,
2013-05-30 16:36:00,56.0,36.5,29.72,WNW,293,14.1,27.1,48,0.00,,,0.00,WUHU216HW,2013-05-30 22:36:00,
2013-05-30 16:37:00,56.2,37.8,29.72,WNW,293,13.4,27.1,50,0.00,,,0.00,WUHU216HW,2013-05-30 22:37:00,
2013-05-30 16:38:00,56.3,36.8,29.72,NW,315,15.2,26.6,48,0.00,,,0.00,WUHU216HW,2013-05-30 22:38:00,
2013-05-30 16:41:00,56.5,36.5,29.72,NW,315,17.7,24.4,47,0.00,,,0.00,WUHU216HW,2013-05-30 22:41:00,
2013-05-30 16:42:00,56.5,36.5,29.72,NNW,338,20.1,23.7,47,0.00,,,0.00,WUHU216HW,2013-05-30 22:42:00,
2013-05-30 16:43:00,56.5,37.0,29.72,NW,315,14.1,23.7,48,0.00,,,0.00,WUHU216HW,2013-05-30 22:43:00,
2013-05-30 16:47:00,56.3,36.3,29.72,NW,315,16.8,23.0,47,0.00,,,0.00,WUHU216HW,2013-05-30 22:47:00,
2013-05-30 16:48:00,56.2,36.1,29.72,WNW,293,19.2,23.0,47,0.00,,,0.00,WUHU216HW,2013-05-30 22:48:00,
2013-05-30 16:52:00,56.2,36.1,29.72,NNW,338,16.1,23.0,47,0.00,,,0.00,WUHU216HW,2013-05-30 22:52:00,
2013-05-30 16:53:00,56.2,36.1,29.72,NW,315,17.7,20.6,47,0.00,,,0.00,WUHU216HW,2013-05-30 22:53:00,
2013-05-30 16:57:00,56.3,35.1,29.72,NW,315,22.1,22.1,45,0.00,,,0.00,WUHU216HW,2013-05-30 22:57:00,
2013-05-30 16:58:00,56.3,35.1,29.72,NNW,338,20.4,22.1,45,0.00,,,0.00,WUHU216HW,2013-05-30 22:58:00,
2013-05-30 17:02:00,56.3,35.1,29.72,WSW,248,21.3,25.9,45,0.00,,,0.00,WUHU216HW,2013-05-30 23:02:00,
2013-05-30 17:03:00,56.2,35.0,29.72,NW,315,20.6,25.9,45,0.00,,,0.00,WUHU216HW,2013-05-30 23:03:00,
2013-05-30 17:07:00,56.0,34.8,29.72,West,270,23.7,28.9,45,0.00,,,0.00,WUHU216HW,2013-05-30 23:07:00,
2013-05-30 17:08:00,56.0,34.8,29.72,West,270,23.7,28.9,45,0.00,,,0.00,WUHU216HW,2013-05-30 23:08:00,
2013-05-30 17:09:00,55.8,34.7,29.72,NW,315,24.4,28.9,45,0.00,,,0.00,WUHU216HW,2013-05-30 23:09:00,
2013-05-30 17:13:00,55.8,35.2,29.72,NW,315,17.9,28.9,46,0.00,,,0.00,WUHU216HW,2013-05-30 23:13:00,
2013-05-30 17:14:00,55.8,35.2,29.73,West,270,23.0,28.9,46,0.00,,,0.00,WUHU216HW,2013-05-30 23:14:00,
2013-05-30 17:18:00,55.3,34.7,29.72,West,270,17.0,26.8,46,0.00,,,0.00,WUHU216HW,2013-05-30 23:18:00,
2013-05-30 17:19:00,55.3,34.7,29.72,NW,315,21.0,26.2,46,0.00,,,0.00,WUHU216HW,2013-05-30 23:19:00,
2013-05-30 17:20:00,55.3,35.3,29.72,NW,315,13.9,26.2,47,0.00,,,0.00,WUHU216HW,2013-05-30 23:20:00,
2013-05-30 17:23:00,55.3,35.3,29.72,West,270,22.8,26.2,47,0.00,,,0.00,WUHU216HW,2013-05-30 23:23:00,
2013-05-30 17:24:00,55.4,36.0,29.73,NW,315,19.5,26.2,48,0.00,,,0.00,WUHU216HW,2013-05-30 23:24:00,
2013-05-30 17:25:00,55.4,36.0,29.73,NW,315,19.5,26.2,48,0.00,,,0.00,WUHU216HW,2013-05-30 23:25:00,
2013-05-30 17:28:00,55.8,36.9,29.73,NNW,338,15.0,23.0,49,0.00,,,0.00,WUHU216HW,2013-05-30 23:28:00,
2013-05-30 17:29:00,55.8,36.4,29.73,North,0,18.3,23.0,48,0.00,,,0.00,WUHU216HW,2013-05-30 23:29:00,
2013-05-30 17:30:00,55.8,36.4,29.73,North,0,18.3,23.0,48,0.00,,,0.00,WUHU216HW,2013-05-30 23:30:00,
2013-05-30 17:33:00,55.8,35.7,29.73,NW,315,21.5,25.1,47,0.00,,,0.00,WUHU216HW,2013-05-30 23:33:00,
2013-05-30 17:34:00,55.8,35.7,29.73,NW,315,21.5,25.1,47,0.00,,,0.00,WUHU216HW,2013-05-30 23:34:00,
2013-05-30 17:35:00,55.4,36.0,29.73,NNW,338,13.6,25.1,48,0.00,,,0.00,WUHU216HW,2013-05-30 23:35:00,
2013-05-30 17:38:00,55.1,36.7,29.73,NW,315,14.3,25.1,50,0.00,,,0.00,WUHU216HW,2013-05-30 23:38:00,
2013-05-30 17:39:00,55.1,36.2,29.73,NW,315,12.1,25.1,49,0.00,,,0.00,WUHU216HW,2013-05-30 23:39:00,
2013-05-30 17:40:00,55.1,35.1,29.73,NNW,338,21.5,25.1,47,0.00,,,0.00,WUHU216HW,2013-05-30 23:40:00,
2013-05-30 17:44:00,55.4,36.0,29.72,NNW,338,20.6,24.4,48,0.00,,,0.00,WUHU216HW,2013-05-30 23:44:00,
2013-05-30 17:45:00,55.4,36.6,29.73,NW,315,17.9,21.5,49,0.00,,,0.00,WUHU216HW,2013-05-30 23:45:00,
2013-05-30 17:48:00,55.1,35.6,29.72,NNW,338,14.8,21.5,48,0.00,,,0.00,WUHU216HW,2013-05-30 23:48:00,
2013-05-30 17:49:00,55.3,35.8,29.72,North,0,16.8,21.5,48,0.00,,,0.00,WUHU216HW,2013-05-30 23:49:00,
2013-05-30 17:50:00,55.3,35.8,29.72,NW,315,13.4,21.5,48,0.00,,,0.00,WUHU216HW,2013-05-30 23:50:00,
2013-05-30 17:54:00,55.3,36.4,29.72,NW,315,16.3,20.4,49,0.00,,,0.00,WUHU216HW,2013-05-30 23:54:00,
2013-05-30 17:55:00,55.4,36.6,29.73,NNW,338,16.3,20.4,49,0.00,,,0.00,WUHU216HW,2013-05-30 23:55:00,
2013-05-30 17:59:00,55.3,35.8,29.72,NW,315,19.7,23.0,48,0.00,,,0.00,WUHU216HW,2013-05-30 23:59:00,
2013-05-30 18:00:00,55.3,35.8,29.72,NW,315,21.5,23.0,48,0.00,,,0.00,WUHU216HW,2013-05-31 00:00:00,
2013-05-30 18:01:00,55.1,35.6,29.72,NW,315,17.0,23.0,48,0.00,,,0.00,WUHU216HW,2013-05-31 00:01:00,
2013-05-30 18:04:00,55.1,35.6,29.72,NNW,338,15.9,23.0,48,0.00,,,0.00,WUHU216HW,2013-05-31 00:04:00,
2013-05-30 18:05:00,55.1,35.6,29.72,NW,315,23.0,23.0,48,0.00,,,0.00,WUHU216HW,2013-05-31 00:05:00,
2013-05-30 18:06:00,55.1,35.6,29.72,NW,315,22.8,24.4,48,0.00,,,0.00,WUHU216HW,2013-05-31 00:06:00,
2013-05-30 18:09:00,55.1,35.1,29.72,WNW,293,22.8,24.4,47,0.00,,,0.00,WUHU216HW,2013-05-31 00:09:00,
2013-05-30 18:10:00,55.1,35.1,29.72,NW,315,20.6,24.4,47,0.00,,,0.00,WUHU216HW,2013-05-31 00:10:00,
2013-05-30 18:11:00,54.9,35.5,29.72,NW,315,16.8,24.4,48,0.00,,,0.00,WUHU216HW,2013-05-31 00:11:00,
2013-05-30 18:14:00,54.7,35.3,29.72,NW,315,19.7,24.4,48,0.00,,,0.00,WUHU216HW,2013-05-31 00:14:00,
2013-05-30 18:16:00,54.7,35.3,29.72,NW,315,24.4,24.4,48,0.00,,,0.00,WUHU216HW,2013-05-31 00:16:00,
2013-05-30 18:19:00,54.5,35.7,29.73,NW,315,19.0,24.4,49,0.00,,,0.00,WUHU216HW,2013-05-31 00:19:00,
2013-05-30 18:21:00,54.5,35.7,29.73,NW,315,19.2,24.4,49,0.00,,,0.00,WUHU216HW,2013-05-31 00:21:00,
2013-05-30 18:25:00,54.4,33.8,29.73,WNW,293,19.7,27.3,46,0.00,,,0.00,WUHU216HW,2013-05-31 00:25:00,
2013-05-30 18:26:00,54.2,33.1,29.73,NNW,338,25.1,28.2,45,0.00,,,0.00,WUHU216HW,2013-05-31 00:26:00,
2013-05-30 18:27:00,54.4,33.8,29.73,NW,315,19.9,28.2,46,0.00,,,0.00,WUHU216HW,2013-05-31 00:27:00,
2013-05-30 18:30:00,54.4,33.8,29.73,NNW,338,18.6,28.2,46,0.00,,,0.00,WUHU216HW,2013-05-31 00:30:00,
2013-05-30 18:31:00,54.4,33.8,29.73,NNW,338,15.0,28.2,46,0.00,,,0.00,WUHU216HW,2013-05-31 00:31:00,
2013-05-30 18:32:00,54.4,33.8,29.73,NW,315,19.0,28.2,46,0.00,,,0.00,WUHU216HW,2013-05-31 00:32:00,
2013-05-30 18:35:00,54.4,33.3,29.73,NNW,338,20.8,25.1,45,0.00,,,0.00,WUHU216HW,2013-05-31 00:35:00,
2013-05-30 18:36:00,54.4,33.3,29.73,NW,315,19.7,25.1,45,0.00,,,0.00,WUHU216HW,2013-05-31 00:36:00,
2013-05-30 18:37:00,54.4,33.8,29.73,NNW,338,15.9,24.4,46,0.00,,,0.00,WUHU216HW,2013-05-31 00:37:00,
2013-05-30 18:41:00,54.4,33.8,29.73,NW,315,14.5,24.4,46,0.00,,,0.00,WUHU216HW,2013-05-31 00:41:00,
2013-05-30 18:42:00,54.4,33.8,29.73,WNW,293,16.3,24.4,46,0.00,,,0.00,WUHU216HW,2013-05-31 00:42:00,
2013-05-30 18:43:00,54.4,33.8,29.73,NW,315,15.0,24.4,46,0.00,,,0.00,WUHU216HW,2013-05-31 00:43:00,
2013-05-30 18:46:00,54.4,34.5,29.73,NW,315,14.8,20.8,47,0.00,,,0.00,WUHU216HW,2013-05-31 00:46:00,
2013-05-30 18:47:00,54.4,34.5,29.73,NNW,338,15.9,20.8,47,0.00,,,0.00,WUHU216HW,2013-05-31 00:47:00,
2013-05-30 18:48:00,54.5,35.2,29.73,NW,315,16.3,20.8,48,0.00,,,0.00,WUHU216HW,2013-05-31 00:48:00,
2013-05-30 18:51:00,54.5,35.2,29.73,NW,315,17.4,19.7,48,0.00,,,0.00,WUHU216HW,2013-05-31 00:51:00,
2013-05-30 18:52:00,54.5,35.2,29.73,NNW,338,14.3,19.2,48,0.00,,,0.00,WUHU216HW,2013-05-31 00:52:00,
2013-05-30 18:53:00,54.7,34.7,29.73,NNW,338,16.6,19.2,47,0.00,,,0.00,WUHU216HW,2013-05-31 00:53:00,
2013-05-30 18:56:00,54.9,34.4,29.73,NW,315,18.3,25.1,46,0.00,,,0.00,WUHU216HW,2013-05-31 00:56:00,
2013-05-30 18:57:00,54.9,34.4,29.73,NNW,338,17.2,25.1,46,0.00,,,0.00,WUHU216HW,2013-05-31 00:57:00,
2013-05-30 18:58:00,54.7,33.1,29.73,WNW,293,19.7,25.1,44,0.00,,,0.00,WUHU216HW,2013-05-31 00:58:00,
2013-05-30 19:02:00,54.5,33.0,29.73,NNW,338,21.7,26.8,44,0.00,,,0.00,WUHU216HW,2013-05-31 01:02:00,
2013-05-30 19:03:00,54.4,32.8,29.73,NW,315,24.2,26.8,44,0.00,,,0.00,WUHU216HW,2013-05-31 01:03:00,
2013-05-30 19:07:00,54.4,32.8,29.73,NW,315,23.9,26.8,44,0.00,,,0.00,WUHU216HW,2013-05-31 01:07:00,
2013-05-30 19:08:00,54.4,32.8,29.73,NW,315,24.4,26.8,44,0.00,,,0.00,WUHU216HW,2013-05-31 01:08:00,
2013-05-30 19:09:00,54.2,32.6,29.73,NNW,338,28.9,28.9,44,0.00,,,0.00,WUHU216HW,2013-05-31 01:09:00,
2013-05-30 19:12:00,54.0,33.6,29.74,WNW,293,20.8,28.9,46,0.00,,,0.00,WUHU216HW,2013-05-31 01:12:00,
2013-05-30 19:13:00,54.2,33.1,29.74,NW,315,19.2,28.9,45,0.00,,,0.00,WUHU216HW,2013-05-31 01:13:00,
2013-05-30 19:14:00,54.0,33.0,29.73,WNW,293,25.7,28.9,45,0.00,,,0.00,WUHU216HW,2013-05-31 01:14:00,
2013-05-30 19:17:00,54.4,33.8,29.73,NW,315,17.7,28.9,46,0.00,,,0.00,WUHU216HW,2013-05-31 01:17:00,
2013-05-30 19:18:00,54.4,33.8,29.73,NW,315,17.7,28.9,46,0.00,,,0.00,WUHU216HW,2013-05-31 01:18:00,
2013-05-30 19:19:00,54.4,33.8,29.74,NW,315,19.0,25.7,46,0.00,,,0.00,WUHU216HW,2013-05-31 01:19:00,
2013-05-30 19:22:00,54.5,34.6,29.74,NNW,338,20.6,25.7,47,0.00,,,0.00,WUHU216HW,2013-05-31 01:22:00,
2013-05-30 19:23:00,54.5,34.6,29.74,NNW,338,20.6,25.7,47,0.00,,,0.00,WUHU216HW,2013-05-31 01:23:00,
2013-05-30 19:24:00,54.7,34.2,29.74,NW,315,20.8,23.5,46,0.00,,,0.00,WUHU216HW,2013-05-31 01:24:00,
2013-05-30 19:28:00,54.5,34.0,29.74,NNW,338,15.7,24.4,46,0.00,,,0.00,WUHU216HW,2013-05-31 01:28:00,
2013-05-30 19:29:00,54.7,34.2,29.74,NW,315,17.9,24.4,46,0.00,,,0.00,WUHU216HW,2013-05-31 01:29:00,
2013-05-30 19:33:00,54.5,34.0,29.74,NW,315,27.3,27.5,46,0.00,,,0.00,WUHU216HW,2013-05-31 01:33:00,
2013-05-30 19:34:00,54.4,33.8,29.74,NW,315,25.7,27.5,46,0.00,,,0.00,WUHU216HW,2013-05-31 01:34:00,
2013-05-30 19:38:00,54.4,33.8,29.74,WNW,293,17.7,27.5,46,0.00,,,0.00,WUHU216HW,2013-05-31 01:38:00,
2013-05-30 19:39:00,54.4,34.5,29.74,NW,315,19.5,27.5,47,0.00,,,0.00,WUHU216HW,2013-05-31 01:39:00,
2013-05-30 19:43:00,54.2,33.8,29.74,NW,315,19.9,26.2,46,0.00,,,0.00,WUHU216HW,2013-05-31 01:43:00,
2013-05-30 19:44:00,54.2,33.8,29.74,NNW,338,21.9,26.2,46,0.00,,,0.00,WUHU216HW,2013-05-31 01:44:00,
2013-05-30 19:45:00,54.2,33.8,29.74,NNW,338,26.2,26.2,46,0.00,,,0.00,WUHU216HW,2013-05-31 01:45:00,
2013-05-30 19:48:00,54.0,33.6,29.74,NW,315,18.1,26.2,46,0.00,,,0.00,WUHU216HW,2013-05-31 01:48:00,
2013-05-30 19:50:00,54.0,33.6,29.74,NW,315,20.6,26.2,46,0.00,,,0.00,WUHU216HW,2013-05-31 01:50:00,
2013-05-30 19:53:00,53.6,33.2,29.74,NW,315,23.3,26.2,46,0.00,,,0.00,WUHU216HW,2013-05-31 01:53:00,
2013-05-30 19:55:00,53.5,33.0,29.74,NNW,338,20.1,26.2,46,0.00,,,0.00,WUHU216HW,2013-05-31 01:55:00,
2013-05-30 19:58:00,53.3,33.0,29.74,NNW,338,22.4,28.2,46,0.00,,,0.00,WUHU216HW,2013-05-31 01:58:00,
2013-05-30 19:59:00,53.3,33.0,29.74,NNW,338,22.4,28.2,46,0.00,,,0.00,WUHU216HW,2013-05-31 01:59:00,
2013-05-30 20:00:00,53.3,33.0,29.74,NW,315,21.0,28.2,46,0.00,,,0.00,WUHU216HW,2013-05-31 02:00:00,
2013-05-30 20:03:00,53.1,33.8,29.74,NNW,338,14.3,28.2,48,0.00,,,0.00,WUHU216HW,2013-05-31 02:03:00,
2013-05-30 20:04:00,53.1,33.8,29.74,NNW,338,14.3,28.2,48,0.00,,,0.00,WUHU216HW,2013-05-31 02:04:00,
2013-05-30 20:05:00,52.9,33.1,29.74,NNW,338,15.0,28.2,47,0.00,,,0.00,WUHU216HW,2013-05-31 02:05:00,
2013-05-30 20:08:00,52.9,33.1,29.74,NNW,338,15.9,22.6,47,0.00,,,0.00,WUHU216HW,2013-05-31 02:08:00,
2013-05-30 20:09:00,52.9,33.1,29.74,NW,315,16.1,22.6,47,0.00,,,0.00,WUHU216HW,2013-05-31 02:09:00,
2013-05-30 20:10:00,52.7,32.4,29.74,NW,315,22.8,25.9,46,0.00,,,0.00,WUHU216HW,2013-05-31 02:10:00,
2013-05-30 20:14:00,52.7,32.4,29.74,NW,315,24.8,25.9,46,0.00,,,0.00,WUHU216HW,2013-05-31 02:14:00,
2013-05-30 20:15:00,52.7,32.4,29.74,NW,315,18.3,27.3,46,0.00,,,0.00,WUHU216HW,2013-05-31 02:15:00,
2013-05-30 20:19:00,52.6,32.2,29.75,WNW,293,19.5,27.3,46,0.00,,,0.00,WUHU216HW,2013-05-31 02:19:00,
2013-05-30 20:20:00,52.6,32.2,29.75,WNW,293,17.7,27.3,46,0.00,,,0.00,WUHU216HW,2013-05-31 02:20:00,
2013-05-30 20:21:00,52.4,32.1,29.75,NW,315,18.6,27.3,46,0.00,,,0.00,WUHU216HW,2013-05-31 02:21:00,
2013-05-30 20:24:00,52.4,32.1,29.74,NW,315,22.6,27.3,46,0.00,,,0.00,WUHU216HW,2013-05-31 02:24:00,
2013-05-30 20:25:00,52.4,32.1,29.74,WNW,293,20.8,27.3,46,0.00,,,0.00,WUHU216HW,2013-05-31 02:25:00,
2013-05-30 20:26:00,52.4,31.5,29.75,WNW,293,20.4,25.9,45,0.00,,,0.00,WUHU216HW,2013-05-31 02:26:00,
2013-05-30 20:30:00,52.2,31.4,29.75,NW,315,15.4,24.6,45,0.00,,,0.00,WUHU216HW,2013-05-31 02:30:00,
2013-05-30 20:31:00,52.2,32.0,29.75,NW,315,15.9,24.6,46,0.00,,,0.00,WUHU216HW,2013-05-31 02:31:00,
2013-05-30 20:35:00,52.2,31.4,29.75,NW,315,21.0,25.3,45,0.00,,,0.00,WUHU216HW,2013-05-31 02:35:00,
2013-05-30 20:36:00,52.2,32.0,29.75,WNW,293,24.4,25.3,46,0.00,,,0.00,WUHU216HW,2013-05-31 02:36:00,
2013-05-30 20:40:00,52.0,31.8,29.75,NW,315,17.9,29.5,46,0.00,,,0.00,WUHU216HW,2013-05-31 02:40:00,
2013-05-30 20:41:00,52.0,31.8,29.75,NW,315,16.6,29.5,46,0.00,,,0.00,WUHU216HW,2013-05-31 02:41:00,
2013-05-30 20:45:00,51.8,32.1,29.75,WNW,293,17.9,29.5,47,0.00,,,0.00,WUHU216HW,2013-05-31 02:45:00,
2013-05-30 20:46:00,51.8,32.1,29.75,WNW,293,16.8,29.5,47,0.00,,,0.00,WUHU216HW,2013-05-31 02:46:00,
2013-05-30 20:50:00,51.7,32.6,29.75,WNW,293,14.8,25.9,48,0.00,,,0.00,WUHU216HW,2013-05-31 02:50:00,
2013-05-30 20:51:00,51.7,32.6,29.75,WNW,293,14.8,25.9,48,0.00,,,0.00,WUHU216HW,2013-05-31 02:51:00,
2013-05-30 20:52:00,51.5,32.4,29.75,NW,315,20.4,25.9,48,0.00,,,0.00,WUHU216HW,2013-05-31 02:52:00,
2013-05-30 20:55:00,51.5,32.4,29.75,NW,315,19.2,23.5,48,0.00,,,0.00,WUHU216HW,2013-05-31 02:55:00,
2013-05-30 20:56:00,51.5,32.9,29.75,NW,315,20.1,23.5,49,0.00,,,0.00,WUHU216HW,2013-05-31 02:56:00,
2013-05-30 20:57:00,51.3,32.8,29.75,NNW,338,17.7,23.5,49,0.00,,,0.00,WUHU216HW,2013-05-31 02:57:00,
2013-05-30 21:01:00,51.3,32.8,29.76,NW,315,16.3,23.5,49,0.00,,,0.00,WUHU216HW,2013-05-31 03:01:00,
2013-05-30 21:02:00,51.1,32.7,29.76,NW,315,12.5,23.5,49,0.00,,,0.00,WUHU216HW,2013-05-31 03:02:00,
2013-05-30 21:06:00,51.1,32.7,29.76,NNW,338,19.0,23.5,49,0.00,,,0.00,WUHU216HW,2013-05-31 03:06:00,
2013-05-30 21:07:00,51.1,32.7,29.76,NW,315,18.8,23.5,49,0.00,,,0.00,WUHU216HW,2013-05-31 03:07:00,
2013-05-30 21:11:00,50.9,33.0,29.76,NNW,338,15.7,23.5,50,0.00,,,0.00,WUHU216HW,2013-05-31 03:11:00,
2013-05-30 21:12:00,50.9,32.5,29.76,West,270,11.6,23.5,49,0.00,,,0.00,WUHU216HW,2013-05-31 03:12:00,
2013-05-30 21:16:00,50.9,32.0,29.76,NW,315,20.6,26.2,48,0.00,,,0.00,WUHU216HW,2013-05-31 03:16:00,
2013-05-30 21:17:00,50.9,32.0,29.76,NW,315,22.1,26.2,48,0.00,,,0.00,WUHU216HW,2013-05-31 03:17:00,
2013-05-30 21:21:00,50.9,32.0,29.76,WNW,293,20.6,26.2,48,0.00,,,0.00,WUHU216HW,2013-05-31 03:21:00,
2013-05-30 21:22:00,50.9,32.0,29.76,NW,315,17.9,26.2,48,0.00,,,0.00,WUHU216HW,2013-05-31 03:22:00,
2013-05-30 21:27:00,50.9,32.0,29.76,NW,315,16.3,25.3,48,0.00,,,0.00,WUHU216HW,2013-05-31 03:27:00,
2013-05-30 21:28:00,50.9,32.0,29.76,West,270,14.1,25.3,48,0.00,,,0.00,WUHU216HW,2013-05-31 03:28:00,
2013-05-30 21:32:00,50.9,32.0,29.76,WNW,293,19.0,25.9,48,0.00,,,0.00,WUHU216HW,2013-05-31 03:32:00,
2013-05-30 21:33:00,50.8,32.3,29.76,NW,315,17.9,25.9,49,0.00,,,0.00,WUHU216HW,2013-05-31 03:33:00,
2013-05-30 21:37:00,50.8,32.3,29.76,NW,315,17.0,25.9,49,0.00,,,0.00,WUHU216HW,2013-05-31 03:37:00,
2013-05-30 21:38:00,50.8,32.3,29.76,NW,315,17.0,25.9,49,0.00,,,0.00,WUHU216HW,2013-05-31 03:38:00,
2013-05-30 21:39:00,50.8,32.3,29.76,NW,315,19.2,24.2,49,0.00,,,0.00,WUHU216HW,2013-05-31 03:39:00,
2013-05-30 21:42:00,50.8,32.9,29.76,NNW,338,14.3,23.3,50,0.00,,,0.00,WUHU216HW,2013-05-31 03:42:00,
2013-05-30 21:43:00,50.6,32.7,29.76,NW,315,8.9,23.3,50,0.00,,,0.00,WUHU216HW,2013-05-31 03:43:00,
2013-05-30 21:44:00,50.6,32.7,29.76,NW,315,16.3,23.3,50,0.00,,,0.00,WUHU216HW,2013-05-31 03:44:00,
2013-05-30 21:47:00,50.6,32.7,29.76,NNW,338,15.7,23.3,50,0.00,,,0.00,WUHU216HW,2013-05-31 03:47:00,
2013-05-30 21:48:00,50.4,32.6,29.76,NNW,338,15.7,23.3,50,0.00,,,0.00,WUHU216HW,2013-05-31 03:48:00,
2013-05-30 21:49:00,50.4,32.6,29.77,NW,315,17.2,21.0,50,0.00,,,0.00,WUHU216HW,2013-05-31 03:49:00,
2013-05-30 21:53:00,50.4,32.6,29.77,NW,315,19.7,20.1,50,0.00,,,0.00,WUHU216HW,2013-05-31 03:53:00,
2013-05-30 21:54:00,50.4,32.6,29.77,WNW,293,18.6,22.6,50,0.00,,,0.00,WUHU216HW,2013-05-31 03:54:00,
2013-05-30 21:58:00,50.4,32.6,29.77,NW,315,16.8,23.0,50,0.00,,,0.00,WUHU216HW,2013-05-31 03:58:00,
2013-05-30 21:59:00,50.4,32.6,29.77,NW,315,16.8,23.0,50,0.00,,,0.00,WUHU216HW,2013-05-31 03:59:00,
2013-05-30 22:00:00,50.4,32.0,29.77,NNW,338,22.6,23.0,49,0.00,,,0.00,WUHU216HW,2013-05-31 04:00:00,
2013-05-30 22:01:00,50.4,32.6,29.77,WNW,293,21.5,23.0,50,0.00,,,0.00,WUHU216HW,2013-05-31 04:01:00,
2013-05-30 22:06:00,50.4,32.6,29.77,WNW,293,15.0,23.0,50,0.00,,,0.00,WUHU216HW,2013-05-31 04:06:00,
2013-05-30 22:07:00,50.4,32.6,29.77,WNW,293,19.2,23.0,50,0.00,,,0.00,WUHU216HW,2013-05-31 04:07:00,
2013-05-30 22:11:00,50.2,32.4,29.77,WNW,293,19.5,22.8,50,0.00,,,0.00,WUHU216HW,2013-05-31 04:11:00,
2013-05-30 22:12:00,50.2,32.4,29.77,NW,315,21.3,22.8,50,0.00,,,0.00,WUHU216HW,2013-05-31 04:12:00,
2013-05-30 22:16:00,50.2,32.4,29.77,NW,315,20.1,25.1,50,0.00,,,0.00,WUHU216HW,2013-05-31 04:16:00,
2013-05-30 22:17:00,50.2,32.4,29.77,WNW,293,18.8,25.1,50,0.00,,,0.00,WUHU216HW,2013-05-31 04:17:00,
2013-05-30 22:21:00,50.4,32.6,29.77,NW,315,16.3,27.7,50,0.00,,,0.00,WUHU216HW,2013-05-31 04:21:00,
2013-05-30 22:22:00,50.2,32.4,29.77,NW,315,25.3,27.7,50,0.00,,,0.00,WUHU216HW,2013-05-31 04:22:00,
2013-05-30 22:26:00,50.2,32.9,29.77,WNW,293,15.7,27.7,51,0.00,,,0.00,WUHU216HW,2013-05-31 04:26:00,
2013-05-30 22:27:00,50.0,32.2,29.77,NW,315,17.9,27.7,50,0.00,,,0.00,WUHU216HW,2013-05-31 04:27:00,
2013-05-30 22:31:00,50.0,32.7,29.77,WNW,293,17.9,25.3,51,0.00,,,0.00,WUHU216HW,2013-05-31 04:31:00,
2013-05-30 22:32:00,50.0,32.7,29.77,WNW,293,17.9,25.3,51,0.00,,,0.00,WUHU216HW,2013-05-31 04:32:00,
2013-05-30 22:33:00,50.0,32.2,29.77,NW,315,24.8,24.8,50,0.00,,,0.00,WUHU216HW,2013-05-31 04:33:00,
2013-05-30 22:36:00,50.0,31.7,29.77,WNW,293,21.3,25.9,49,0.00,,,0.00,WUHU216HW,2013-05-31 04:36:00,
2013-05-30 22:37:00,50.0,32.2,29.77,NW,315,18.6,25.9,50,0.00,,,0.00,WUHU216HW,2013-05-31 04:37:00,
2013-05-30 22:38:00,50.0,31.7,29.77,WNW,293,23.0,26.2,49,0.00,,,0.00,WUHU216HW,2013-05-31 04:38:00,
2013-05-30 22:41:00,50.0,31.7,29.77,WNW,293,27.3,28.0,49,0.00,,,0.00,WUHU216HW,2013-05-31 04:41:00,
2013-05-30 22:42:00,50.0,31.7,29.77,WNW,293,27.3,28.0,49,0.00,,,0.00,WUHU216HW,2013-05-31 04:42:00,
2013-05-30 22:43:00,50.2,31.9,29.77,WNW,293,23.9,28.0,49,0.00,,,0.00,WUHU216HW,2013-05-31 04:43:00,
2013-05-30 22:47:00,50.0,31.7,29.77,WNW,293,22.6,28.0,49,0.00,,,0.00,WUHU216HW,2013-05-31 04:47:00,
2013-05-30 22:48:00,50.0,31.7,29.77,WNW,293,19.0,28.0,49,0.00,,,0.00,WUHU216HW,2013-05-31 04:48:00,
2013-05-30 22:52:00,50.0,31.7,29.77,WNW,293,19.2,27.3,49,0.00,,,0.00,WUHU216HW,2013-05-31 04:52:00,
2013-05-30 22:53:00,50.0,31.7,29.77,WNW,293,22.8,24.6,49,0.00,,,0.00,WUHU216HW,2013-05-31 04:53:00,
2013-05-30 22:57:00,50.0,31.2,29.78,NW,315,19.7,25.3,48,0.00,,,0.00,WUHU216HW,2013-05-31 04:57:00,
2013-05-30 22:58:00,50.0,31.2,29.78,NW,315,19.2,25.3,48,0.00,,,0.00,WUHU216HW,2013-05-31 04:58:00,
2013-05-30 23:02:00,49.9,31.5,29.78,WSW,248,17.7,25.9,49,0.00,,,0.00,WUHU216HW,2013-05-31 05:02:00,
2013-05-30 23:03:00,49.9,31.0,29.78,WNW,293,23.3,25.9,48,0.00,,,0.00,WUHU216HW,2013-05-31 05:03:00,
2013-05-30 23:04:00,49.9,31.5,29.78,WNW,293,20.4,25.9,49,0.00,,,0.00,WUHU216HW,2013-05-31 05:04:00,
2013-05-30 23:07:00,49.7,31.3,29.78,NW,315,24.2,25.9,49,0.00,,,0.00,WUHU216HW,2013-05-31 05:07:00,
2013-05-30 23:08:00,49.7,31.3,29.78,WNW,293,15.0,25.9,49,0.00,,,0.00,WUHU216HW,2013-05-31 05:08:00,
2013-05-30 23:09:00,49.7,31.3,29.78,WNW,293,15.0,25.9,49,0.00,,,0.00,WUHU216HW,2013-05-31 05:09:00,
2013-05-30 23:12:00,49.7,31.3,29.78,NW,315,18.8,24.2,49,0.00,,,0.00,WUHU216HW,2013-05-31 05:12:00,
2013-05-30 23:13:00,49.5,31.2,29.78,WNW,293,13.4,24.2,49,0.00,,,0.00,WUHU216HW,2013-05-31 05:13:00,
2013-05-30 23:14:00,49.5,31.2,29.78,West,270,17.2,24.2,49,0.00,,,0.00,WUHU216HW,2013-05-31 05:14:00,
2013-05-30 23:17:00,49.5,31.2,29.78,WNW,293,19.2,25.9,49,0.00,,,0.00,WUHU216HW,2013-05-31 05:17:00,
2013-05-30 23:18:00,49.5,31.2,29.78,West,270,21.3,25.9,49,0.00,,,0.00,WUHU216HW,2013-05-31 05:18:00,
2013-05-30 23:19:00,49.7,31.3,29.78,WNW,293,23.0,25.9,49,0.00,,,0.00,WUHU216HW,2013-05-31 05:19:00,
2013-05-30 23:22:00,49.5,31.7,29.78,West,270,19.0,25.9,50,0.00,,,0.00,WUHU216HW,2013-05-31 05:22:00,
2013-05-30 23:23:00,49.5,31.2,29.78,NW,315,24.4,25.9,49,0.00,,,0.00,WUHU216HW,2013-05-31 05:23:00,
2013-05-30 23:24:00,49.5,31.2,29.78,WNW,293,21.5,25.7,49,0.00,,,0.00,WUHU216HW,2013-05-31 05:24:00,
2013-05-30 23:28:00,49.3,31.5,29.79,NW,315,15.9,25.7,50,0.00,,,0.00,WUHU216HW,2013-05-31 05:28:00,
2013-05-30 23:29:00,49.3,31.5,29.78,NW,315,18.1,25.7,50,0.00,,,0.00,WUHU216HW,2013-05-31 05:29:00,
2013-05-30 23:30:00,49.3,31.5,29.78,NW,315,21.0,25.7,50,0.00,,,0.00,WUHU216HW,2013-05-31 05:30:00,
2013-05-30 23:33:00,49.3,31.5,29.79,WNW,293,20.8,24.4,50,0.00,,,0.00,WUHU216HW,2013-05-31 05:33:00,
2013-05-30 23:34:00,49.3,32.0,29.79,WNW,293,13.4,22.1,51,0.00,,,0.00,WUHU216HW,2013-05-31 05:34:00,
2013-05-30 23:35:00,49.3,32.0,29.79,NW,315,15.7,22.1,51,0.00,,,0.00,WUHU216HW,2013-05-31 05:35:00,
2013-05-30 23:38:00,49.1,32.2,29.79,WNW,293,16.1,22.1,52,0.00,,,0.00,WUHU216HW,2013-05-31 05:38:00,
2013-05-30 23:39:00,49.1,32.2,29.79,WNW,293,22.4,22.4,52,0.00,,,0.00,WUHU216HW,2013-05-31 05:39:00,
2013-05-30 23:40:00,49.1,31.8,29.79,WNW,293,24.8,24.8,51,0.00,,,0.00,WUHU216HW,2013-05-31 05:40:00,
2013-05-30 23:44:00,49.0,32.0,29.79,West,270,18.8,24.8,52,0.00,,,0.00,WUHU216HW,2013-05-31 05:44:00,
2013-05-30 23:45:00,49.0,32.0,29.79,NW,315,15.0,24.8,52,0.00,,,0.00,WUHU216HW,2013-05-31 05:45:00,
2013-05-30 23:49:00,49.0,32.0,29.79,NW,315,20.6,26.8,52,0.00,,,0.00,WUHU216HW,2013-05-31 05:49:00,
2013-05-30 23:50:00,48.8,31.9,29.79,NW,315,16.3,26.8,52,0.00,,,0.00,WUHU216HW,2013-05-31 05:50:00,
2013-05-30 23:54:00,48.8,32.3,29.79,WNW,293,15.7,26.8,53,0.00,,,0.00,WUHU216HW,2013-05-31 05:54:00,
2013-05-30 23:55:00,48.8,32.9,29.79,WNW,293,12.3,26.8,54,0.00,,,0.00,WUHU216HW,2013-05-31 05:55:00,
2013-05-30 23:59:00,48.6,32.7,29.79,WNW,293,18.3,23.0,54,0.00,,,0.00,WUHU216HW,2013-05-31 05:59:00,